GFSSE_sfc_dewp_000.txt.gz
Dewpoint
68 70 71 72 72 71 71 71 71 71 70 70 70 69 68 68 68 69 69 69 69 68 67 68 68 68 69 69 69 68 69 70 69 68 69 68 65 65 67 69 67 65 67
70 70 70 71 72 72 71 71 71 71 70 70 70 69 68 68 67 67 68 68 68 67 66 66 67 67 67 67 67 67 68 68 68 68 67 65 63 63 64 67 67 65 67
69 70 70 71 72 72 72 72 71 71 70 69 69 69 68 67 66 66 67 68 66 65 65 64 64 65 65 66 66 67 67 68 68 67 67 63 63 64 63 66 67 67 67
69 69 69 71 72 72 72 72 71 71 70 70 69 69 68 66 66 66 66 67 65 64 63 64 64 65 65 65 65 66 66 66 67 67 63 65 64 64 60 64 66 65 66
69 70 70 70 71 72 71 71 71 71 71 70 69 68 67 66 66 65 65 63 62 62 62 61 62 62 64 64 65 65 65 65 66 64 62 64 62 59 62 64 65 67 68
70 70 70 70 71 71 71 71 71 70 70 69 68 67 66 65 65 64 63 62 61 60 60 60 60 60 61 62 63 63 63 64 65 61 62 64 63 63 63 64 66 66 67
68 71 71 70 70 71 71 71 70 70 69 69 69 67 66 65 64 63 63 61 60 59 59 59 59 59 59 60 61 62 63 63 61 60 61 63 62 63 62 64 63 66 66
67 69 71 71 70 70 70 70 69 69 69 69 68 67 65 65 64 63 62 61 60 59 58 58 59 58 59 59 60 62 62 63 60 59 61 63 64 64 62 63 66 66 66
69 69 69 69 69 68 68 67 68 68 68 68 68 67 66 65 65 63 62 61 60 59 58 58 59 59 59 59 60 60 61 62 60 56 59 63 64 65 63 63 65 66 66
66 66 65 66 66 66 66 67 67 66 66 66 66 66 65 65 64 64 63 62 61 60 60 60 60 60 59 60 60 60 61 61 57 55 58 62 66 66 65 65 66 67 67
62 63 63 63 64 64 64 65 66 66 65 65 65 65 64 63 62 62 63 62 63 62 62 62 62 61 60 60 60 60 60 58 57 56 60 62 64 63 63 63 64 65 66
58 60 60 61 62 63 62 64 64 64 64 63 64 63 63 63 62 61 62 63 63 63 63 63 63 63 61 57 56 55 50 53 53 52 59 62 63 62 59 60 63 64 64
55 58 59 61 61 60 59 62 62 63 63 63 63 63 62 63 60 62 60 61 61 62 61 61 61 60 59 57 56 51 45 44 47 49 51 61 62 60 59 58 58 62 63
54 55 57 58 59 56 59 61 61 61 62 63 62 60 59 59 55 55 57 58 58 57 58 59 59 58 56 56 55 51 44 42 44 47 49 59 61 60 58 56 56 59 61
54 56 57 57 56 56 55 57 57 58 60 61 60 59 57 56 53 54 53 52 51 51 52 52 54 52 50 51 50 47 44 41 42 45 47 56 60 60 57 55 54 55 56
55 56 59 60 59 55 55 57 56 56 56 57 57 56 55 54 54 54 52 52 52 52 52 50 49 49 49 50 50 49 46 42 40 42 45 47 58 59 59 56 54 54 54
55 58 60 61 59 57 55 56 55 51 51 52 51 51 50 52 52 52 50 49 51 52 51 51 50 50 50 50 50 50 50 47 43 42 43 45 49 57 57 58 58 57 55
57 57 61 59 60 57 54 52 50 50 50 49 50 49 49 50 50 49 47 47 49 49 49 48 49 49 48 48 48 48 49 48 47 45 44 44 45 47 53 56 57 57 57
58 59 59 60 59 57 53 53 50 50 49 47 47 45 47 48 48 46 45 45 47 47 46 46 46 48 46 44 43 41 45 47 48 48 46 44 45 46 45 50 55 55 57
56 56 56 58 58 53 45 48 47 48 48 46 43 44 45 44 44 44 44 45 46 44 43 43 42 43 43 44 40 41 43 45 46 47 48 47 48 48 47 44 45 51 55
47 47 50 50 51 43 46 46 49 44 43 42 42 45 45 45 45 45 44 45 45 43 42 41 42 42 41 42 40 38 40 40 42 44 46 46 46 44 44 44 46 46 49
45 47 48 46 45 45 48 48 47 44 43 43 46 44 45 46 43 42 43 42 43 41 41 41 42 41 41 42 40 41 34 36 37 41 43 42 44 44 43 44 45 47 46
40 41 41 40 41 45 46 43 44 44 44 44 42 42 43 42 41 40 40 41 41 41 41 40 41 41 41 42 42 41 38 36 39 40 39 36 39 40 43 46 43 40 47
40 39 39 39 39 40 41 41 43 43 41 43 43 41 38 39 40 39 39 41 41 41 40 41 42 42 41 40 41 41 40 38 36 34 36 35 36 36 39 42 40 41 48
41 40 39 39 39 39 39 40 42 39 39 41 41 37 36 38 39 38 39 40 40 40 40 40 41 40 41 40 40 39 38 38 38 36 31 33 34 36 38 39 39 42 43
40 39 37 36 38 39 39 39 41 37 37 38 35 35 35 37 37 38 38 38 37 38 38 39 38 39 38 38 38 38 38 36 35 35 34 34 32 33 35 37 38 40 41

GFSSE_sfc_dewp_003.txt.gz
Dewpoint
69 70 71 72 72 72 72 71 70 70 70 69 68 68 68 67 67 68 69 69 69 67 67 67 67 67 67 67 68 68 68 68 68 68 67 67 65 64 66 68 66 65 67
69 70 71 71 71 72 72 71 71 70 70 69 68 68 68 67 66 67 67 67 66 65 64 65 65 66 66 66 66 66 67 68 68 67 66 65 65 65 64 67 66 65 67
69 70 70 71 71 71 71 71 71 70 69 68 68 68 67 66 66 66 66 66 64 63 62 63 63 63 63 64 65 66 66 67 67 67 67 64 63 66 64 66 66 66 66
69 70 70 71 71 72 71 71 71 70 69 69 68 68 67 66 66 65 65 65 63 62 62 62 62 62 63 64 65 65 65 66 66 66 64 64 64 66 63 62 65 65 66
69 69 71 71 71 72 71 71 71 71 70 70 69 67 66 66 64 63 63 62 61 61 61 61 61 61 61 62 63 63 63 64 65 63 62 63 63 64 64 63 65 66 67
69 69 70 70 71 71 71 71 71 71 70 69 68 66 66 65 63 63 62 61 60 60 60 59 59 59 60 61 61 61 61 62 63 60 61 63 65 64 65 66 66 66 67
69 70 70 69 70 71 71 71 70 70 68 68 68 66 65 64 63 62 61 60 59 59 59 58 59 59 59 59 60 60 61 62 60 58 59 62 63 65 65 65 65 65 65
69 70 70 70 70 70 70 70 69 69 69 69 68 66 65 64 63 62 60 59 59 59 58 59 59 59 59 59 59 61 61 61 60 56 56 63 64 66 66 63 65 66 66
67 68 70 70 70 69 68 68 67 68 68 68 67 67 66 65 64 63 60 59 59 59 59 59 60 60 59 59 60 61 61 62 58 55 56 61 65 66 65 65 65 65 66
67 67 67 67 66 66 66 66 67 67 67 67 67 66 65 64 64 64 63 62 61 60 61 61 61 61 60 61 61 61 60 59 56 55 57 60 64 64 63 64 65 66 66
65 64 64 64 64 64 64 65 66 66 66 66 66 65 64 62 61 61 63 63 63 63 62 62 62 62 61 60 60 61 58 52 53 53 55 61 64 64 62 62 64 64 65
61 62 62 62 62 63 64 63 63 63 63 63 63 63 62 62 61 62 62 63 64 63 63 63 63 63 63 58 56 57 50 46 48 49 52 60 62 62 62 60 62 61 63
59 60 60 61 61 61 61 62 62 62 62 62 62 62 62 62 61 61 60 59 60 62 60 61 60 60 58 58 57 55 51 45 45 46 50 57 61 61 60 58 59 58 60
57 58 59 60 60 60 60 60 60 61 62 62 62 62 60 59 57 57 57 57 55 55 54 57 58 57 57 56 56 55 53 46 44 45 48 57 59 60 58 56 56 56 59
56 57 58 60 59 57 59 59 60 60 62 62 62 60 59 57 53 53 52 52 51 51 51 50 51 50 49 49 50 50 48 46 44 43 46 54 57 59 58 57 56 55 56
54 55 56 59 58 55 55 58 58 58 60 61 60 58 55 54 53 53 52 50 50 52 52 51 50 50 50 50 49 50 50 48 45 43 43 45 53 57 60 58 57 56 56
53 55 57 58 59 56 55 56 55 57 55 57 53 51 51 53 52 50 48 47 48 49 48 47 48 48 46 46 46 48 48 48 48 46 45 44 46 52 57 59 60 60 60
54 56 59 62 60 60 58 57 56 54 50 51 51 51 50 49 48 47 44 44 46 47 47 45 46 42 43 44 44 43 43 46 46 48 47 46 46 46 49 53 56 58 59
56 58 60 62 62 61 57 54 53 51 48 46 46 47 45 44 44 43 43 45 46 45 44 43 42 42 42 42 40 40 41 42 44 47 47 46 46 45 44 47 50 52 54
53 55 57 57 58 54 51 50 48 50 49 49 45 43 43 43 45 44 45 45 45 42 41 40 39 41 41 42 39 38 38 38 41 46 45 45 43 43 42 43 44 45 50
49 50 53 52 51 50 51 50 49 48 47 46 44 45 44 43 42 42 42 42 42 40 39 40 41 40 38 41 38 36 36 34 38 43 45 45 43 42 40 41 41 39 42
46 47 48 48 46 46 48 48 50 48 47 47 44 42 41 41 40 39 41 41 40 39 39 39 39 39 40 42 40 40 36 36 39 39 40 40 40 42 42 40 39 34 32
39 40 40 41 43 44 49 48 44 43 43 41 40 40 38 41 39 39 40 40 40 40 39 39 40 40 39 40 41 39 36 34 37 38 36 37 37 37 39 41 41 35 36
37 37 37 37 38 39 40 40 40 40 39 41 41 36 36 39 38 39 39 39 39 39 39 40 40 39 39 38 39 39 38 37 34 32 34 33 36 35 37 39 39 38 39
39 37 37 38 38 38 38 40 41 39 37 40 37 34 35 38 38 38 37 37 38 38 37 37 37 36 37 36 36 36 36 37 36 34 32 31 33 34 35 38 38 39 39
38 37 36 37 37 38 38 38 39 36 37 34 32 33 34 36 38 38 37 38 37 37 36 35 34 34 34 35 35 36 37 35 34 34 33 31 32 33 34 37 37 38 38

GFSSE_sfc_dewp_006.txt.gz
Dewpoint
68 69 70 72 72 71 71 70 70 70 70 69 69 68 67 67 67 67 68 69 68 66 66 66 66 66 66 66 66 67 67 67 68 67 68 66 65 65 66 67 67 64 67
69 70 70 71 71 71 71 70 70 70 70 68 68 68 67 67 67 67 66 66 65 63 63 63 64 64 64 65 66 66 66 67 67 67 67 67 66 66 66 67 66 66 67
69 70 70 71 71 71 71 70 71 70 69 68 68 68 67 66 66 66 65 65 64 62 62 62 62 63 63 64 65 65 65 65 66 66 66 63 63 65 66 66 67 67 66
69 70 70 70 71 71 71 71 70 69 69 68 68 67 66 66 64 64 64 64 62 61 61 60 60 60 61 62 62 62 62 62 63 64 62 62 63 65 67 66 65 65 65
69 69 70 70 71 71 71 71 70 70 70 69 68 67 66 64 63 62 63 62 61 60 60 59 59 59 59 60 61 60 60 61 62 60 59 62 64 65 66 66 66 66 66
68 69 69 70 70 71 71 71 71 70 69 69 68 66 65 64 63 62 61 60 59 58 58 58 58 58 59 59 59 59 60 61 61 57 57 59 63 66 66 66 67 66 66
68 69 69 69 70 71 71 71 70 69 68 68 68 66 65 64 62 61 60 59 58 58 58 59 59 59 59 59 59 60 60 61 59 55 55 60 63 66 66 65 66 65 65
68 69 69 70 70 70 70 70 69 68 68 68 67 66 64 64 63 61 59 59 59 58 59 60 60 60 60 59 60 61 61 62 58 55 55 58 63 66 64 63 66 64 64
67 69 69 69 69 69 68 68 68 68 68 68 67 66 66 65 64 62 60 60 60 59 60 61 62 62 61 61 61 61 60 60 54 55 55 58 63 64 64 62 64 65 65
66 66 66 67 68 67 66 67 67 67 67 67 66 66 64 64 64 63 62 61 62 61 62 62 62 62 62 62 61 61 60 53 50 51 53 56 62 63 63 62 62 63 63
66 66 67 66 67 65 64 66 66 67 66 66 65 65 63 61 60 60 62 63 63 62 62 63 63 63 62 61 60 61 58 48 46 48 49 55 59 59 60 62 63 62 62
63 64 64 63 63 63 65 64 63 63 63 63 63 62 62 61 60 61 62 63 63 63 64 64 64 64 62 58 57 58 54 51 45 45 46 55 57 57 58 60 62 62 62
63 63 62 62 62 61 62 61 61 61 61 61 61 60 61 61 60 60 60 58 58 60 59 58 59 58 58 57 57 56 55 53 48 45 45 54 56 57 58 57 60 60 60
59 61 61 60 60 60 60 60 60 60 60 60 61 61 60 59 58 56 56 53 52 52 51 53 55 55 55 53 52 53 54 53 49 46 46 53 54 56 57 57 57 60 60
57 58 58 59 59 59 59 59 59 60 61 61 61 60 58 57 53 53 52 52 51 52 51 50 50 50 50 50 49 50 49 49 48 47 46 51 53 53 55 56 56 56 60
56 57 58 59 58 56 57 58 59 59 60 60 60 57 56 54 53 52 50 49 48 50 49 49 49 49 48 48 46 47 47 47 46 47 47 47 51 52 53 55 56 57 58
54 55 57 59 58 58 58 58 59 58 59 58 56 52 54 53 51 48 46 44 46 47 47 46 46 44 43 43 43 44 42 44 45 48 48 47 47 49 51 51 53 55 55
54 57 60 61 61 60 59 58 58 56 55 55 55 54 50 46 46 44 44 45 46 45 43 43 44 40 42 42 40 40 40 42 43 48 46 46 45 42 44 47 47 48 51
58 60 60 61 60 59 58 56 55 52 49 49 49 47 44 45 44 44 44 45 43 41 41 41 41 41 41 40 39 40 38 40 43 46 45 44 43 42 42 43 44 44 44
57 58 58 57 56 55 55 54 53 50 49 50 49 48 44 42 44 44 42 42 41 39 39 40 39 40 40 41 39 37 37 37 43 45 43 42 42 41 40 39 39 38 39
52 52 53 53 54 52 50 49 48 47 50 51 44 43 42 41 40 40 40 40 40 39 39 40 39 39 38 42 39 37 38 37 40 43 42 41 41 42 41 39 39 37 34
51 52 52 50 48 48 48 48 50 50 48 43 41 39 40 40 39 39 40 40 39 38 39 40 40 39 39 41 40 39 35 37 38 38 39 39 38 40 36 36 38 39 36
44 44 42 43 43 45 48 48 44 43 43 39 40 36 38 39 39 39 39 39 38 38 39 39 39 39 38 39 39 38 35 33 35 37 35 36 36 36 37 38 37 39 37
36 37 38 39 39 40 40 40 39 39 38 40 37 35 37 38 38 38 38 38 38 38 39 39 38 37 38 34 37 36 37 36 34 32 34 33 35 34 37 38 38 39 38
38 37 38 38 38 38 39 41 40 37 39 38 35 34 34 37 37 37 37 37 37 37 36 36 34 33 35 33 34 35 35 35 35 33 29 30 30 33 35 35 38 39 38
38 37 37 39 39 39 38 39 38 37 35 33 34 35 35 35 37 37 37 37 37 36 35 34 33 33 33 33 33 33 34 33 31 32 29 28 27 31 28 35 37 37 38

GFSSE_sfc_dewp_009.txt.gz
Dewpoint
67 68 70 70 71 71 70 70 70 70 70 70 70 68 68 68 67 68 68 68 67 64 64 64 64 65 65 66 66 66 66 67 67 67 67 67 66 66 66 66 66 59 67
68 68 70 70 70 70 70 70 70 70 70 69 68 68 67 67 67 66 65 66 65 63 63 63 63 63 64 64 65 65 65 65 65 66 65 63 64 66 66 67 68 63 67
68 69 68 69 70 70 70 70 70 70 69 69 68 67 66 66 65 65 64 65 64 62 61 61 60 60 61 61 61 61 61 61 63 63 63 60 61 66 66 67 67 67 65
69 69 67 69 70 70 70 70 70 70 69 69 68 67 66 65 64 64 63 65 62 60 59 58 58 58 59 60 60 60 60 61 61 60 56 59 61 65 66 66 66 65 65
69 69 68 69 70 70 71 70 70 70 70 69 68 66 65 64 63 63 62 63 60 58 57 57 57 58 59 60 60 60 60 61 60 56 55 60 63 64 66 65 65 65 65
68 69 69 69 70 70 71 70 70 70 70 69 68 66 65 63 62 61 61 60 58 58 59 58 59 58 59 60 60 60 60 61 59 53 56 59 62 66 65 66 66 65 66
68 68 68 68 69 70 71 71 70 69 69 69 68 67 65 63 62 60 60 59 59 59 60 60 60 59 60 60 60 60 60 61 53 52 54 58 61 65 64 63 65 66 65
67 68 69 69 69 70 70 70 69 68 68 68 67 66 64 63 62 60 60 59 59 60 61 61 60 60 60 60 61 61 61 60 49 48 51 53 62 63 64 63 65 66 65
68 68 69 69 69 69 68 68 68 67 68 67 67 66 65 64 63 61 61 61 60 61 62 62 62 62 61 62 62 62 61 56 47 47 46 47 60 61 62 63 63 63 63
68 68 68 69 68 68 68 67 67 67 67 67 66 65 63 63 63 63 61 61 62 62 62 63 63 63 63 63 62 61 61 55 48 46 45 45 59 59 58 60 62 61 60
66 67 67 66 66 68 68 67 67 67 66 66 65 64 63 61 61 60 62 63 63 63 63 64 64 63 63 62 61 61 60 53 52 48 46 53 56 57 58 59 63 63 60
64 65 66 66 66 67 65 66 65 63 62 63 62 63 62 63 63 62 62 63 62 62 63 63 63 63 61 58 56 58 53 56 54 52 49 54 55 56 57 60 62 62 62
63 63 64 65 66 67 65 64 63 62 62 62 63 63 63 63 64 63 62 61 61 59 56 56 56 57 58 57 54 55 54 53 51 50 50 54 55 56 56 56 60 61 62
63 64 65 66 65 64 62 62 61 60 61 61 62 63 63 62 63 60 57 55 56 55 55 54 53 56 55 53 52 52 51 47 43 44 47 53 54 56 57 58 58 58 60
60 61 63 63 62 62 61 61 60 60 61 62 63 63 62 60 60 57 56 54 53 52 51 51 51 51 51 49 49 47 45 44 44 42 46 52 54 55 56 57 58 58 58
58 59 61 61 60 59 60 61 62 62 61 61 62 60 59 59 58 55 51 48 48 49 49 48 49 47 46 45 45 45 42 42 43 46 44 47 49 50 50 51 52 54 55
56 58 61 60 60 60 60 61 60 60 59 57 58 58 55 54 53 50 49 49 49 49 47 47 45 45 43 40 40 40 38 42 40 47 45 43 42 46 47 47 47 47 48
55 58 61 61 61 61 61 60 59 56 56 55 55 54 49 48 50 49 47 47 46 45 44 44 43 41 41 40 38 37 38 38 43 47 43 42 41 39 43 44 44 44 45
58 60 61 62 61 61 59 56 53 52 49 49 52 49 48 47 47 47 45 45 44 42 43 41 41 41 39 37 31 34 34 32 45 43 42 42 43 41 38 40 41 41 42
60 60 60 60 60 59 57 54 53 50 49 50 48 45 44 42 44 44 43 44 42 40 40 40 40 38 39 38 27 31 32 36 45 44 42 39 40 40 39 38 37 35 40
58 58 57 57 57 56 52 51 51 50 50 47 41 43 43 43 42 44 41 41 41 40 42 41 38 35 32 39 32 29 28 40 42 40 40 39 38 37 38 36 34 33 33
56 56 56 54 52 49 49 50 52 52 47 41 40 42 41 42 40 40 42 40 42 40 42 41 38 33 36 41 32 29 25 26 32 38 36 37 38 36 34 35 36 35 35
51 51 50 49 49 48 49 48 46 46 45 42 38 38 39 40 38 40 42 42 42 42 40 41 40 38 33 36 41 31 26 24 31 31 33 34 35 33 33 34 33 33 36
42 44 44 44 43 43 44 44 45 42 41 42 38 38 39 41 40 38 40 42 42 41 41 40 37 38 36 31 31 34 35 34 26 24 26 27 30 27 30 33 29 32 34
42 43 43 42 42 42 44 44 42 42 41 38 39 40 40 41 41 39 39 41 41 39 40 39 37 34 32 29 28 28 29 26 28 24 18 19 20 21 25 25 30 28 29
41 43 42 39 38 41 42 42 43 42 38 38 39 39 39 40 40 41 39 40 40 39 37 36 36 33 31 30 28 27 23 20 19 23 20 19 18 18 19 24 26 25 24

GFSSE_sfc_dewp_012.txt.gz
Dewpoint
65 66 71 71 71 71 70 70 70 70 70 70 70 68 68 68 67 67 67 67 66 63 63 64 64 64 64 64 64 64 64 65 65 65 65 64 65 66 66 65 67 59 66
66 67 70 70 71 71 70 70 70 70 70 69 68 68 67 67 66 65 66 66 65 62 62 62 61 60 60 60 60 60 61 62 62 63 64 63 67 66 66 66 68 62 65
66 66 66 70 70 70 70 71 70 70 69 69 68 67 66 65 65 65 65 65 63 61 60 59 58 58 58 59 60 60 60 60 60 60 62 54 59 66 66 66 67 65 65
66 66 65 69 70 70 70 71 70 70 69 68 67 66 65 64 64 64 63 64 61 59 57 56 56 57 58 59 60 60 60 61 60 61 48 53 55 66 64 64 64 64 65
66 66 66 69 69 70 70 70 70 70 70 69 67 65 64 63 63 62 62 62 58 58 58 57 57 57 59 60 60 59 60 60 61 56 49 56 56 64 64 64 64 64 64
67 67 68 68 69 69 69 70 70 70 70 69 68 65 64 62 61 60 60 58 59 59 59 58 58 59 60 61 61 58 60 60 60 46 49 55 57 64 64 64 64 63 64
67 67 67 68 68 69 70 71 70 70 69 68 67 65 64 62 60 59 59 60 60 60 60 60 59 60 60 61 60 60 59 60 43 40 42 48 56 63 63 63 64 63 63
65 67 67 67 68 68 70 70 69 69 69 68 67 65 63 62 60 60 60 60 60 60 61 60 60 61 61 61 61 61 59 58 45 42 42 43 60 61 61 63 63 62 62
66 67 67 66 67 68 69 68 67 68 68 67 66 65 63 62 62 61 61 61 60 60 61 61 61 62 62 62 62 61 61 55 48 44 41 41 59 59 58 60 62 61 60
67 66 67 67 66 67 67 67 67 67 66 66 65 64 63 63 61 61 60 61 61 62 62 62 62 63 63 63 62 62 61 60 47 45 43 47 57 58 58 59 60 60 59
66 66 66 65 65 65 64 67 66 67 66 65 64 63 61 58 58 57 61 62 63 63 63 63 63 64 63 63 61 60 60 45 47 44 44 57 57 57 57 58 61 61 59
64 64 65 66 66 66 61 63 62 58 57 58 59 61 59 62 61 59 61 62 61 62 62 60 60 61 60 49 48 55 45 49 46 46 47 56 57 58 58 57 60 62 62
62 63 64 66 66 64 61 59 56 56 58 60 63 62 62 62 62 59 57 56 57 57 53 53 52 49 53 52 48 49 48 46 43 43 51 56 57 58 59 59 59 60 60
60 61 64 65 65 63 58 55 56 57 59 60 61 63 64 61 60 58 54 55 57 54 53 51 49 52 52 50 50 49 47 44 41 41 50 55 56 57 58 58 58 59 58
55 58 61 62 62 62 59 58 59 60 61 62 63 63 62 61 61 58 57 54 52 50 49 48 47 46 46 45 47 45 43 44 44 41 43 51 52 53 54 54 54 54 54
54 58 61 60 60 59 59 60 60 60 60 61 62 61 60 61 61 58 53 50 49 49 47 45 46 43 42 43 41 44 42 42 41 44 39 45 49 49 49 50 50 50 51
54 58 61 61 60 60 60 59 60 59 60 58 59 60 58 58 57 53 50 51 48 47 45 44 43 42 41 39 40 40 40 40 39 42 42 39 41 47 46 46 47 47 47
52 58 61 61 61 61 61 60 60 60 58 55 55 55 52 49 51 51 50 48 46 44 43 42 42 39 39 39 39 36 37 37 36 43 42 42 40 37 44 44 43 42 44
53 59 61 62 62 62 60 59 57 57 53 52 52 50 50 47 47 48 45 45 45 42 43 41 40 40 37 37 34 32 34 34 35 34 41 42 43 41 39 44 44 43 40
57 59 62 62 62 62 61 57 53 49 49 49 48 45 44 43 45 45 44 45 41 39 38 39 40 38 38 38 33 31 35 33 33 37 40 38 39 39 38 38 37 34 41
60 60 61 61 61 59 56 53 49 49 49 47 44 44 44 43 42 43 40 40 41 39 42 42 39 38 35 38 35 29 28 30 36 36 36 35 36 37 37 35 33 32 31
59 60 59 59 58 56 53 49 50 51 48 43 43 44 41 41 39 38 42 40 40 38 40 42 40 36 32 35 36 33 26 25 26 32 34 33 36 34 32 31 33 32 31
56 56 54 52 51 50 51 49 49 48 45 43 41 40 41 41 39 40 42 41 41 39 36 40 40 39 35 34 35 33 29 25 26 27 30 27 33 30 30 28 31 28 29
49 50 49 48 47 46 44 45 47 43 42 42 42 41 40 43 43 41 40 42 41 39 39 39 36 38 35 30 31 28 31 30 26 24 25 27 24 23 26 24 28 26 26
46 46 45 44 43 45 45 46 44 43 41 40 41 41 42 42 42 40 40 40 40 39 40 40 38 35 34 33 29 29 29 26 25 21 19 20 20 19 19 21 24 26 26
44 46 45 43 42 43 43 44 44 42 40 39 39 36 33 31 29 30 30 39 41 40 41 38 37 36 34 31 27 25 23 22 20 19 18 19 18 18 19 21 23 23 24

GFSSE_sfc_dewp_015.txt.gz
Dewpoint
63 64 71 71 71 71 70 70 70 70 70 70 69 68 68 67 66 67 67 66 66 63 63 62 61 61 60 60 60 60 61 62 63 64 64 64 66 66 66 66 68 59 65
64 64 70 71 71 70 70 70 70 71 70 69 68 68 67 66 65 65 66 65 64 62 60 60 59 58 58 59 60 60 60 60 60 62 63 65 67 67 66 65 67 63 65
65 64 65 70 70 70 70 71 71 70 69 68 67 66 65 64 65 64 64 65 62 59 58 58 57 57 59 60 60 60 60 60 61 62 62 55 62 65 64 66 66 65 65
65 64 64 70 70 70 70 70 70 69 69 67 66 65 64 64 63 63 62 63 60 58 57 56 56 59 59 59 59 59 60 60 62 64 50 48 58 65 64 64 64 64 64
66 65 66 69 69 69 69 69 70 70 69 68 67 64 64 62 62 62 61 60 60 59 59 58 58 59 60 61 60 58 59 61 62 57 48 53 55 63 65 63 63 64 64
66 66 68 68 69 69 69 69 69 70 69 68 67 64 63 61 60 60 60 60 60 60 59 59 59 60 61 62 61 59 60 62 60 38 43 54 55 63 64 63 63 62 64
67 68 66 68 68 68 68 69 70 69 69 68 66 64 62 59 59 59 60 61 61 60 60 60 60 61 61 61 61 61 61 60 49 41 40 50 57 62 63 64 63 62 61
68 67 67 68 68 66 68 69 69 69 68 67 66 64 61 60 60 60 60 60 60 60 61 60 61 61 62 62 62 62 62 61 48 43 42 48 61 60 59 61 62 61 60
66 67 66 66 66 68 68 68 68 68 67 67 65 64 62 61 62 61 61 61 61 61 61 61 61 62 62 62 62 62 62 62 55 44 42 46 59 59 59 59 60 60 60
67 67 67 66 65 66 67 67 67 67 66 66 64 63 62 62 61 60 60 62 62 62 62 63 63 63 63 63 62 61 61 61 47 43 46 54 59 58 57 59 59 59 60
66 66 66 65 65 65 65 66 66 66 66 65 64 62 60 57 56 57 61 62 62 62 62 62 62 62 63 63 62 60 60 44 46 42 50 59 59 59 59 58 59 60 60
63 64 66 65 63 62 57 60 58 55 55 57 58 58 55 59 58 54 59 61 61 61 62 61 60 61 60 48 48 58 44 46 42 41 50 59 58 59 60 59 60 60 61
62 63 64 66 66 59 57 55 53 53 57 60 61 59 60 58 59 57 55 55 56 57 52 53 51 50 52 51 49 49 47 45 40 40 54 59 57 58 59 59 59 59 59
57 62 64 64 64 59 55 52 54 55 57 57 59 60 61 58 59 58 54 55 56 53 53 52 50 52 51 48 47 48 46 44 41 41 54 57 55 55 56 56 55 55 55
53 58 60 61 60 59 56 56 59 60 61 61 62 62 62 60 60 59 61 57 53 52 51 51 49 47 46 46 46 44 44 43 43 40 42 55 54 52 52 53 53 53 52
52 56 58 57 59 57 58 61 59 58 58 58 59 60 60 60 60 58 55 54 52 54 49 47 45 45 43 44 43 42 43 42 42 43 40 47 53 51 50 49 50 50 50
52 56 58 59 58 58 60 59 59 60 60 58 57 60 60 59 59 57 54 53 53 52 49 47 46 43 41 39 41 40 39 39 39 40 39 43 47 50 48 47 46 46 46
52 58 59 57 59 60 60 60 60 60 59 56 54 55 53 52 54 52 51 50 47 44 43 44 42 40 40 39 38 37 36 35 37 39 36 40 41 40 45 45 43 42 42
51 57 60 61 61 61 61 61 60 59 56 54 54 51 51 47 47 48 45 46 47 43 43 42 41 42 40 39 36 35 37 34 37 32 34 39 43 44 39 45 47 46 38
52 58 60 61 63 61 60 60 58 56 53 51 50 47 46 44 45 46 44 46 44 41 41 43 44 42 40 37 30 34 37 32 33 34 35 38 38 39 38 38 36 34 43
57 58 61 61 62 60 58 56 52 50 50 49 46 46 46 44 42 44 42 43 43 42 43 43 42 41 33 34 31 33 33 35 37 32 32 35 38 36 38 35 33 30 31
58 59 61 60 60 57 54 51 50 50 50 45 44 45 43 44 42 41 44 43 43 41 42 41 40 37 34 34 32 31 29 27 28 31 31 32 37 31 30 31 32 30 31
58 59 58 57 55 52 51 51 51 50 46 43 43 41 43 44 42 42 43 43 43 41 36 39 38 39 34 34 35 30 27 25 27 27 30 28 36 30 30 27 27 26 28
55 55 53 51 49 50 48 45 45 44 43 44 42 42 42 43 43 40 39 40 41 39 38 37 34 37 37 32 32 29 32 30 26 25 23 23 25 24 31 25 23 24 25
50 50 49 46 44 45 46 47 45 44 42 41 42 41 41 37 33 29 29 32 35 38 39 40 40 38 35 34 32 30 29 26 26 21 19 19 19 20 21 22 23 23 23
46 47 47 44 44 45 46 46 46 43 40 37 33 28 26 25 25 27 27 32 34 36 39 38 38 38 39 37 31 29 26 23 20 20 19 21 21 20 19 22 27 25 26

GFSSE_sfc_dewp_018.txt.gz
Dewpoint
63 67 71 71 71 71 70 70 70 70 70 70 70 69 68 66 67 68 67 66 65 62 61 60 59 58 58 59 60 60 60 60 61 63 65 66 66 67 66 67 67 62 67
64 66 70 70 70 70 70 70 70 70 70 70 69 68 67 67 67 67 66 65 64 61 59 58 58 60 60 60 61 61 61 62 64 63 63 65 66 65 65 67 67 64 67
63 65 67 70 70 70 70 71 71 70 70 68 67 67 66 64 64 65 65 64 63 59 57 57 59 58 58 59 59 60 60 63 64 65 64 62 63 65 65 67 66 66 66
62 63 66 70 70 70 70 70 70 70 68 68 66 65 65 63 63 63 64 64 63 60 58 59 59 59 59 59 60 60 62 63 63 64 54 57 60 65 63 63 64 64 65
62 63 67 69 68 69 69 69 70 69 68 67 66 64 62 61 61 61 64 64 62 60 59 59 60 61 62 64 63 63 63 63 62 59 52 56 57 64 64 63 61 63 65
65 65 68 67 67 68 68 70 69 69 68 67 66 65 61 60 60 62 64 64 61 61 60 61 61 62 64 64 64 63 63 63 61 45 50 58 59 63 64 64 64 63 64
67 67 67 67 67 68 69 70 69 68 68 67 66 64 63 60 61 62 64 63 62 61 61 61 62 63 64 64 63 63 63 63 55 45 50 56 59 61 60 62 62 62 63
67 68 66 67 68 68 69 69 68 68 67 66 65 64 63 63 63 64 64 64 63 64 64 63 63 64 64 63 63 62 62 62 53 52 50 56 63 61 59 60 63 63 63
67 67 66 67 67 68 67 67 67 66 66 66 65 64 64 64 64 64 64 64 64 64 64 64 64 64 64 64 63 62 61 61 56 51 51 55 62 60 59 59 61 63 63
65 66 66 66 67 67 65 66 66 66 65 65 64 63 63 63 63 63 63 64 64 63 63 63 64 63 63 63 62 62 62 60 48 49 54 58 61 60 60 58 59 63 63
62 65 66 66 66 66 65 65 65 65 65 64 62 62 61 59 60 60 62 63 63 62 62 63 61 61 62 62 62 62 63 47 47 48 53 61 61 60 60 60 61 61 62
61 64 65 66 66 66 61 63 62 60 59 61 59 60 61 61 58 54 61 62 62 61 61 62 61 61 61 52 54 60 50 50 47 48 55 60 59 59 60 60 61 60 60
62 63 64 65 65 60 59 60 57 59 61 62 62 62 62 62 62 61 62 60 61 61 58 58 56 55 52 53 51 51 50 47 46 46 56 59 57 56 57 57 57 57 56
61 63 63 63 64 60 58 57 59 60 62 64 65 63 64 64 63 62 61 59 58 57 56 56 54 53 50 50 50 49 48 47 45 45 55 57 57 53 53 54 54 54 54
59 62 62 63 62 60 60 62 62 61 60 61 61 62 62 62 61 60 59 57 58 55 54 52 51 49 48 47 49 47 45 45 45 44 51 55 55 52 51 52 52 52 52
57 58 60 59 60 60 62 61 59 59 60 60 60 61 61 61 61 58 58 56 54 54 51 50 49 48 47 46 44 46 45 44 43 45 42 51 54 53 50 50 49 48 48
55 57 59 61 61 61 62 60 59 60 61 58 60 60 60 60 59 57 55 53 52 52 50 49 47 46 45 42 41 41 42 40 39 42 43 39 51 52 50 46 45 44 45
54 56 58 58 60 62 61 60 61 61 59 58 57 57 55 54 54 53 51 53 51 50 48 47 46 45 44 43 42 41 41 40 37 37 40 40 45 44 49 48 44 42 41
56 58 58 61 61 62 61 61 61 60 58 56 57 55 53 50 50 51 51 51 49 48 48 47 46 46 44 41 37 35 40 38 38 34 35 37 42 42 41 47 48 45 41
57 60 60 62 62 61 61 61 60 59 57 56 54 51 50 48 49 50 51 48 47 46 46 47 46 45 44 40 33 31 38 39 36 37 36 36 41 42 40 38 39 37 42
59 60 62 62 62 60 59 58 58 55 54 54 49 50 49 47 46 47 48 48 47 45 46 44 43 40 40 40 36 35 34 35 36 33 34 34 36 33 37 39 35 33 31
59 61 62 61 61 60 59 56 54 53 54 49 49 48 48 48 46 44 47 46 46 45 44 44 41 41 39 39 36 34 31 30 32 31 33 32 33 34 33 29 32 30 32
61 61 59 60 61 60 55 53 53 51 50 48 48 47 47 47 45 44 45 45 45 43 42 42 40 40 38 37 38 34 30 28 30 32 30 31 31 32 33 30 27 28 27
59 60 59 59 56 53 53 52 52 48 46 48 47 47 46 45 43 36 37 40 40 43 42 42 38 40 39 36 35 34 34 32 27 24 26 26 26 24 27 31 28 28 27
57 57 55 52 50 50 50 52 50 48 47 46 45 43 40 37 36 33 35 39 39 39 40 42 42 39 38 38 37 34 31 30 28 24 21 23 23 25 25 28 29 28 27
52 53 52 47 46 49 49 49 48 45 42 37 36 35 34 34 34 36 35 37 39 40 39 41 41 40 39 39 37 34 30 28 25 25 23 22 22 23 24 27 28 29 30

GFSSE_sfc_dewp_021.txt.gz
Dewpoint
67 70 71 72 71 71 70 70 70 70 70 70 69 68 68 67 67 67 66 65 64 62 59 60 60 60 60 60 60 61 61 62 63 64 67 66 66 65 66 66 67 64 66
68 69 70 71 70 70 71 70 70 70 70 69 68 68 67 67 66 66 65 64 63 60 60 60 58 58 58 58 60 60 61 64 65 64 65 65 65 65 66 66 67 66 67
67 69 69 70 70 70 71 71 70 70 69 67 67 67 66 65 63 65 65 64 63 60 60 60 60 59 60 60 61 61 62 64 64 64 63 63 62 64 64 66 66 65 65
67 67 68 70 70 70 70 70 69 68 67 67 66 65 65 63 62 63 65 64 63 61 60 61 61 61 61 62 63 64 64 64 65 63 58 58 60 64 64 62 62 64 64
65 67 68 69 69 70 70 69 69 68 67 66 65 64 63 62 63 63 65 64 63 61 61 61 61 61 62 64 64 64 63 63 61 57 56 59 61 62 64 63 61 61 63
66 67 67 67 67 69 70 69 68 67 66 65 64 64 62 62 63 63 65 64 61 61 61 61 61 62 64 64 64 64 63 63 58 51 57 61 59 61 61 62 61 61 63
67 67 66 67 67 68 69 69 68 67 66 65 64 64 63 63 62 64 65 64 62 62 62 62 62 64 64 63 64 63 62 61 50 52 56 58 59 61 60 61 61 61 60
66 66 67 68 68 68 68 68 67 66 66 65 65 64 64 65 65 65 65 65 64 64 64 64 64 63 63 63 63 63 62 62 52 51 55 58 63 61 60 60 63 64 62
63 63 66 67 67 67 66 66 66 66 65 64 64 64 64 64 64 65 65 65 64 64 63 64 64 63 63 63 62 63 63 62 51 52 54 58 63 60 60 60 61 63 64
62 62 63 67 65 65 64 65 65 64 63 63 63 63 63 63 64 64 64 64 63 62 62 63 61 62 62 61 62 62 62 58 48 52 56 60 63 61 61 61 61 62 63
62 61 62 66 65 65 63 63 64 65 63 62 62 62 61 59 59 61 62 63 62 61 61 62 61 61 61 60 62 62 61 47 48 51 56 61 62 61 61 61 61 61 61
58 61 63 64 65 64 60 62 62 61 61 59 58 58 57 59 59 59 61 62 61 62 61 60 60 62 60 52 51 57 48 46 46 52 57 60 59 58 59 59 58 57 57
61 63 63 64 65 61 59 60 59 58 60 61 60 60 60 61 60 60 60 60 59 60 56 57 54 52 47 48 50 48 47 44 45 52 56 58 57 55 56 56 55 55 54
61 62 63 64 63 59 60 58 58 61 62 64 62 61 62 61 60 58 57 57 56 55 52 51 50 47 46 46 47 46 46 43 45 50 54 56 56 52 53 52 53 53 52
61 62 62 63 58 57 59 61 60 60 60 60 60 60 61 59 58 57 57 56 53 52 48 47 48 46 45 43 43 44 43 42 42 44 51 55 55 53 51 52 51 50 49
61 61 61 60 57 60 59 58 58 58 58 59 60 60 60 60 57 56 53 50 49 49 49 47 45 45 43 42 41 42 40 40 38 39 46 50 55 54 51 49 47 47 45
60 60 60 57 60 60 58 58 58 59 58 58 58 58 58 57 55 53 51 51 49 47 46 44 45 44 44 42 41 41 39 39 37 37 38 45 52 53 51 46 43 43 42
57 57 58 58 61 59 59 58 59 59 57 55 54 54 53 53 52 50 51 47 46 47 47 46 45 44 44 42 39 37 40 37 37 34 34 36 48 47 50 49 44 43 41
56 57 56 58 60 59 60 59 59 59 55 54 54 52 49 49 49 49 48 46 45 46 46 45 44 44 42 40 35 33 34 37 35 35 34 34 43 45 43 50 49 43 39
57 59 58 60 60 60 59 59 59 57 55 55 52 49 47 46 46 48 47 47 46 45 44 42 42 40 41 38 36 34 35 36 36 35 33 32 35 38 40 36 34 37 41
58 58 61 60 60 60 58 58 57 54 53 49 47 46 46 45 46 45 45 45 44 43 42 42 40 38 38 39 35 34 33 33 31 32 33 33 33 33 34 34 33 30 33
60 60 60 60 60 58 58 58 55 52 50 47 47 46 45 45 43 44 44 43 43 42 41 40 39 38 39 37 33 34 31 31 32 32 31 31 29 31 32 29 29 30 31
61 60 60 59 59 59 59 52 50 47 46 45 45 44 44 44 43 40 39 38 39 41 40 39 39 38 36 36 35 33 30 28 29 29 27 27 27 27 28 29 28 27 27
60 60 60 60 60 60 55 49 45 44 44 46 46 45 40 35 33 32 35 36 36 37 35 40 39 38 37 35 36 35 32 31 25 24 25 25 26 24 26 28 28 27 27
59 59 59 58 54 51 50 50 47 44 44 41 38 33 30 33 32 32 34 34 34 38 37 38 39 39 39 37 36 34 31 29 26 23 22 23 24 25 25 27 27 28 28
55 53 49 47 47 46 45 45 43 41 33 32 30 30 30 32 34 33 31 34 36 37 38 40 38 38 39 38 37 34 30 28 25 24 23 23 22 24 24 25 27 27 28

GFSSE_sfc_dewp_024.txt.gz
Dewpoint
68 70 71 71 71 71 71 70 70 69 69 69 68 67 67 65 66 66 65 64 63 61 60 59 58 58 59 60 61 61 61 62 64 66 67 65 65 65 65 66 67 64 66
69 70 70 71 71 71 71 70 70 69 69 68 67 67 67 65 65 65 64 64 64 60 60 60 60 60 60 61 61 62 62 63 64 66 67 65 64 64 65 65 67 64 65
68 70 69 70 70 70 71 70 69 69 68 66 66 66 65 64 64 65 64 64 64 61 61 60 60 60 61 61 63 64 65 65 64 64 66 62 61 63 63 62 64 65 65
69 68 68 69 70 71 70 69 68 67 66 66 65 63 64 63 63 65 64 64 64 61 61 60 60 60 61 63 64 64 64 64 64 64 59 61 60 63 63 61 60 60 64
67 67 68 69 70 70 69 68 67 67 67 66 65 63 63 63 63 63 64 64 64 61 60 60 61 61 63 64 64 63 63 62 62 59 60 60 60 60 61 60 60 60 61
66 67 68 69 69 69 69 68 67 66 65 65 64 65 63 63 63 64 65 64 62 61 61 61 61 62 63 64 64 63 61 60 58 56 57 60 58 61 60 60 60 60 61
66 66 66 67 68 68 68 68 67 66 65 64 65 65 65 64 63 65 65 64 63 61 61 61 62 63 63 64 64 63 63 60 53 56 58 59 59 61 60 61 61 61 61
66 66 66 67 67 67 67 67 66 65 65 64 65 65 65 65 65 65 65 65 64 64 63 63 63 62 62 63 63 63 62 58 52 53 56 58 63 61 60 61 62 63 62
65 65 65 65 66 66 66 66 65 64 64 64 64 64 64 64 65 65 65 65 64 63 63 61 61 62 61 61 63 63 59 59 52 55 57 59 63 61 61 62 62 63 63
62 62 63 64 65 65 64 65 65 63 63 64 64 64 63 64 64 64 64 63 63 61 61 60 61 61 60 61 62 62 56 57 51 54 57 60 63 60 61 62 62 61 61
60 61 63 65 64 64 63 63 64 63 63 63 63 63 61 60 60 61 61 62 61 61 61 60 60 61 61 58 62 60 54 48 50 53 57 61 60 59 60 60 59 58 58
59 60 61 64 64 63 60 62 61 59 59 58 58 58 56 57 58 60 62 61 61 60 61 61 62 58 54 49 50 52 46 45 50 53 56 60 58 57 57 57 57 56 56
59 59 60 64 63 61 58 60 59 59 58 58 56 57 59 59 60 60 59 59 58 57 53 52 49 47 46 47 47 48 45 44 46 51 55 58 57 55 55 55 55 54 54
59 59 61 64 63 60 58 58 57 59 62 62 61 61 60 60 57 56 56 55 53 51 48 49 48 46 44 43 43 42 42 42 43 47 51 57 57 52 53 53 54 52 51
60 61 62 63 63 59 59 59 60 62 60 60 60 60 59 58 56 56 53 51 50 48 47 46 45 43 43 41 42 40 40 40 38 43 49 54 55 54 51 52 51 49 49
61 61 62 63 58 59 60 59 58 58 59 59 60 60 59 57 55 52 50 49 48 48 46 44 43 43 42 41 40 38 40 38 37 36 41 47 55 55 52 50 48 47 45
60 61 62 58 60 59 58 57 57 58 58 57 58 58 57 55 53 51 50 48 46 47 45 45 44 44 43 41 37 36 40 37 37 35 36 42 52 54 53 47 44 43 42
60 60 60 60 59 58 57 57 58 57 55 54 54 54 54 53 51 50 47 45 46 46 45 44 44 43 42 39 36 34 36 37 35 34 32 40 48 47 50 49 45 43 42
59 59 57 60 58 58 57 58 58 56 54 53 53 51 50 49 50 48 46 45 45 45 44 43 42 41 40 38 36 34 36 36 35 32 31 33 42 44 43 45 45 43 39
58 59 58 60 58 58 58 58 57 56 54 54 51 49 46 46 48 47 45 45 44 43 42 41 37 38 38 38 35 33 33 34 33 33 32 31 33 34 34 32 33 37 41
58 58 59 59 59 57 58 57 56 54 53 51 46 46 45 46 45 44 45 43 43 42 41 40 38 36 36 37 33 33 33 33 32 31 31 29 29 31 30 32 32 31 31
58 58 59 59 59 56 56 58 56 53 49 46 45 45 44 44 43 43 43 43 42 40 39 39 37 37 38 36 33 33 29 31 30 29 29 28 26 28 27 28 28 28 29
57 59 59 59 58 57 56 56 51 48 46 44 43 43 44 44 40 38 37 36 36 37 36 37 38 36 35 36 34 32 29 28 28 29 26 25 25 26 26 27 26 26 27
58 59 60 59 58 58 57 53 50 47 44 44 44 44 38 34 35 35 34 35 35 36 35 36 40 38 36 35 35 34 31 30 25 23 25 25 25 24 25 27 27 27 28
59 59 59 59 59 59 52 50 47 45 45 45 41 33 32 33 34 34 34 34 36 37 37 39 38 38 38 37 35 34 30 28 26 24 22 23 24 25 25 26 26 27 27
59 59 58 57 52 52 51 48 45 41 38 35 32 31 32 34 34 32 33 33 34 37 39 38 38 38 37 37 36 34 30 27 26 24 23 23 22 23 24 24 25 26 28

GFSSE_sfc_dewp_027.txt.gz
Dewpoint
68 70 71 71 70 71 70 70 68 68 68 68 67 66 66 64 65 65 65 64 63 61 60 61 61 60 61 62 63 62 62 65 67 67 66 64 64 65 65 66 65 63 66
68 70 70 70 70 71 70 69 68 68 68 66 66 66 66 65 65 65 65 64 64 61 61 61 61 61 61 63 64 64 63 64 67 66 64 64 63 63 62 63 65 63 65
68 69 69 70 70 70 70 69 68 68 66 65 64 65 64 64 64 65 65 65 64 62 61 61 61 61 62 64 66 67 65 65 66 66 64 61 59 61 61 60 60 63 65
69 68 68 70 70 70 69 68 68 66 65 65 63 64 64 64 63 65 65 65 64 63 61 61 61 61 62 64 64 64 65 65 65 63 61 60 57 59 59 59 59 60 62
68 67 68 69 69 69 68 67 67 67 66 65 65 63 63 64 63 64 65 65 64 61 61 61 61 62 63 64 63 63 64 64 63 61 59 58 58 58 60 60 60 60 60
67 68 68 69 69 68 68 68 67 66 65 65 65 65 64 64 63 64 65 64 63 61 61 61 61 63 64 63 63 63 62 61 59 57 57 59 58 60 61 61 61 61 60
67 67 68 68 68 68 68 67 67 66 65 65 66 65 65 65 64 65 65 65 64 62 61 61 63 63 64 63 62 63 61 60 56 56 57 59 60 61 61 62 63 63 63
66 66 67 68 67 67 67 66 66 65 65 65 66 65 66 65 65 65 65 65 65 64 63 63 62 62 63 63 61 61 60 58 53 55 57 58 63 61 61 62 63 62 63
64 64 66 65 66 66 66 65 65 65 65 65 65 65 65 65 65 65 65 65 64 63 62 62 62 62 64 63 61 60 59 59 53 56 58 59 63 60 62 62 61 61 61
62 62 62 63 63 64 63 64 64 64 64 65 65 65 64 64 65 64 64 64 62 61 61 62 62 62 61 63 59 59 59 56 52 55 57 60 61 60 61 61 60 59 59
60 61 62 62 64 64 63 63 63 64 64 64 63 63 62 60 60 59 62 61 61 60 61 62 61 60 57 59 59 56 53 50 50 54 57 61 59 59 59 58 58 57 57
59 60 61 62 63 63 60 61 59 59 59 59 59 59 57 58 59 59 61 61 61 61 60 59 57 56 51 48 49 50 44 48 50 52 55 60 57 56 57 57 56 56 55
58 57 60 64 63 61 59 60 59 57 57 57 57 56 57 58 59 58 58 58 53 55 49 48 46 45 44 44 44 43 43 44 44 50 53 57 57 54 54 55 55 54 53
57 56 58 62 62 61 59 58 57 58 60 61 58 60 59 57 56 55 54 52 50 49 48 47 46 43 42 42 41 40 41 39 39 46 50 55 56 50 52 53 53 52 51
56 56 58 62 62 60 58 57 59 62 60 60 60 59 58 56 55 54 51 50 48 47 46 45 43 42 41 40 39 38 39 37 37 39 43 52 54 53 49 52 51 49 49
57 58 60 62 62 59 58 59 60 59 59 59 59 59 58 56 52 50 49 48 48 46 45 44 43 43 41 39 37 39 37 37 35 35 38 42 53 55 52 50 48 47 46
59 60 62 62 59 59 58 58 58 58 58 58 58 57 56 54 51 49 47 46 46 45 44 43 43 43 41 38 35 35 37 36 34 33 36 41 50 53 53 47 46 43 43
60 61 62 61 59 58 57 57 57 56 56 56 56 56 54 51 50 47 46 46 45 45 44 43 42 41 40 37 35 34 36 35 34 32 33 43 47 46 47 49 45 43 42
61 61 58 59 58 57 56 57 56 54 53 53 53 51 50 51 48 46 45 45 44 43 43 41 39 39 37 36 36 34 34 34 33 31 31 33 35 41 39 42 43 41 36
60 60 59 58 57 57 57 57 55 53 53 53 50 48 47 49 47 45 45 44 43 41 40 38 36 37 38 38 34 33 33 32 32 32 29 28 29 30 32 32 31 31 38
59 59 59 57 57 57 56 56 54 52 53 51 48 46 46 46 45 44 44 43 42 41 39 38 37 36 37 36 33 33 33 32 30 29 29 27 27 27 28 30 31 29 29
57 58 59 58 57 56 56 56 55 53 50 46 46 45 45 44 43 43 43 41 40 39 38 38 37 37 37 36 33 32 29 30 30 28 27 26 25 26 26 26 26 26 27
56 57 59 58 57 56 57 56 51 48 45 44 43 43 43 44 40 38 36 36 35 35 35 36 38 36 35 35 34 32 29 27 28 28 25 25 24 25 26 27 25 27 26
56 58 59 59 58 57 56 56 52 50 45 43 43 43 35 36 35 34 34 36 37 37 36 37 39 38 36 34 35 33 31 29 26 24 25 25 26 23 24 26 25 26 27
57 58 59 59 59 58 57 56 53 49 45 45 42 34 33 35 35 34 35 35 36 37 38 38 38 37 37 36 35 34 31 28 26 24 22 23 25 25 25 25 25 27 26
58 58 58 58 58 58 56 54 51 45 43 40 33 32 34 34 34 34 32 35 36 39 38 38 37 37 36 36 36 34 30 27 26 25 23 23 23 23 24 25 25 26 27

GFSSE_sfc_dewp_030.txt.gz
Dewpoint
68 70 70 70 70 70 69 69 69 69 68 68 67 66 66 65 65 66 65 64 64 64 62 62 62 63 64 64 63 65 66 67 67 66 65 63 63 63 65 65 65 64 66
69 69 70 70 70 69 69 68 68 68 67 67 66 66 65 65 66 65 65 65 65 64 62 63 63 65 66 65 64 64 66 67 66 65 64 62 61 61 60 62 64 63 65
68 69 69 70 70 69 69 68 68 68 67 66 65 65 65 65 65 65 65 65 65 64 62 62 64 65 66 67 66 66 66 67 66 65 63 59 56 59 60 60 61 62 63
68 68 68 70 69 69 69 68 67 66 66 65 65 65 65 65 65 66 65 64 65 64 61 61 61 62 63 65 67 67 66 65 64 63 60 58 55 60 60 60 60 60 60
68 68 68 69 69 69 68 67 67 66 66 65 65 64 64 64 64 65 65 65 65 64 61 61 61 61 63 64 64 65 64 63 62 59 59 58 58 59 61 61 61 61 61
68 67 69 68 69 68 68 67 67 66 65 65 65 65 65 65 64 66 65 65 65 64 61 61 61 62 64 64 63 63 62 61 60 58 58 60 59 61 62 63 62 62 62
67 68 67 67 67 68 68 67 67 66 65 66 66 65 65 65 65 66 65 65 65 64 63 62 63 63 63 64 63 63 62 60 56 56 57 60 60 61 62 62 62 62 62
65 66 66 67 67 67 67 66 66 66 66 66 66 66 66 66 66 66 65 65 64 64 63 64 64 64 62 63 62 61 60 58 55 56 58 59 63 61 61 61 61 61 61
62 65 64 66 66 66 66 65 65 66 66 66 66 66 66 65 65 65 65 64 64 63 63 63 64 64 62 62 62 61 60 58 56 58 59 60 61 60 60 60 60 60 60
60 62 61 62 62 63 63 64 65 65 66 66 65 65 64 64 65 64 64 63 63 63 63 63 63 64 61 61 61 60 58 55 54 57 59 60 60 59 59 58 58 58 58
59 60 60 60 62 63 62 63 63 65 65 64 64 63 62 61 60 58 61 61 61 61 62 61 60 59 59 59 57 55 53 50 52 55 57 60 58 58 57 57 56 56 56
58 59 60 60 60 61 62 59 59 60 60 60 60 58 58 58 58 59 61 62 62 60 60 58 56 54 50 46 46 48 45 47 50 52 54 60 56 56 57 56 55 55 54
57 58 60 60 60 61 60 59 58 57 57 58 57 56 57 58 58 58 57 54 52 52 47 45 44 43 43 42 42 42 41 41 44 49 51 57 57 53 55 55 54 54 52
56 57 58 60 61 61 59 58 57 56 56 57 56 57 58 58 56 55 54 50 49 48 46 45 44 43 42 40 40 41 40 38 38 42 45 54 55 54 52 54 53 52 51
55 56 59 60 62 60 58 57 57 59 59 58 58 59 57 56 54 52 50 48 47 46 45 44 43 41 40 38 40 38 38 37 37 38 40 47 54 54 49 53 51 51 50
54 55 57 60 62 60 57 57 59 59 59 59 59 58 56 55 51 49 48 48 46 45 44 43 43 41 39 37 38 38 38 35 34 38 40 43 55 55 53 52 49 48 47
55 55 58 61 62 59 58 58 59 58 58 58 58 57 55 52 50 47 47 46 45 44 44 43 42 41 38 37 35 37 37 35 34 36 43 48 48 52 52 49 47 45 45
57 59 61 61 60 58 57 58 58 57 57 57 56 55 54 51 49 46 46 45 45 44 43 42 40 39 38 37 35 36 35 34 33 34 36 44 45 42 45 49 45 44 40
59 60 61 60 58 57 57 57 56 55 55 55 54 53 51 49 46 46 45 44 43 42 42 39 39 38 36 37 35 34 34 33 32 29 31 33 36 35 34 41 41 42 40
60 60 60 59 57 56 56 55 54 53 53 52 50 49 50 47 46 45 44 43 42 40 38 37 36 38 38 37 33 33 33 33 32 30 29 27 29 31 32 33 33 34 37
59 59 59 57 56 56 56 54 52 52 52 50 48 47 48 46 44 44 43 42 41 39 39 38 37 36 36 35 34 34 33 33 30 29 28 28 27 28 30 30 30 30 29
59 59 58 58 57 56 55 54 53 53 51 48 46 46 45 45 44 43 42 41 39 38 37 38 37 37 37 36 33 32 30 31 31 29 27 27 27 27 28 28 29 29 29
58 59 59 58 57 56 56 54 50 50 46 44 43 43 43 44 42 39 37 36 35 35 35 37 37 36 35 35 34 33 29 27 29 30 27 27 27 27 28 28 28 29 29
58 58 59 58 57 56 57 54 51 51 47 46 43 43 37 37 36 35 36 37 37 37 37 39 38 38 36 34 35 34 32 31 28 27 27 26 27 25 27 28 28 29 29
56 57 58 58 57 56 57 55 53 51 50 47 43 34 35 35 35 35 36 36 37 38 39 39 38 37 37 36 35 34 32 29 27 25 23 24 25 26 27 27 27 27 28
56 56 58 59 58 57 56 54 52 49 48 44 40 35 37 34 35 34 34 35 37 40 38 38 38 36 36 36 36 35 32 29 27 25 24 24 24 25 25 27 27 27 29

GFSSE_sfc_dewp_033.txt.gz
Dewpoint
66 66 70 70 70 70 70 69 69 69 68 68 68 67 66 66 66 66 65 65 65 65 63 64 65 64 64 67 66 64 65 66 66 66 64 61 61 62 64 65 65 62 66
67 66 70 70 70 70 69 69 69 68 68 68 67 66 67 66 66 66 66 65 65 65 65 66 66 65 64 66 66 66 65 66 66 64 62 60 60 60 61 62 65 63 65
67 66 67 69 69 69 69 69 68 68 68 67 67 67 66 66 66 66 66 65 66 66 66 66 66 65 65 66 68 67 65 65 65 63 61 52 55 60 60 60 61 61 62
67 66 65 69 69 69 68 68 68 67 67 66 66 66 66 67 66 66 65 65 65 65 64 65 66 66 66 67 68 66 65 63 63 62 54 53 54 61 61 61 61 60 59
67 66 66 69 68 68 68 67 67 66 66 66 66 66 66 67 66 66 65 65 65 65 62 62 63 65 66 66 66 65 63 63 62 58 55 56 56 60 62 62 61 62 61
68 66 68 68 68 68 68 67 66 66 66 65 65 66 66 66 66 66 66 65 65 65 61 61 63 63 64 65 64 63 63 62 61 54 56 59 58 61 62 62 63 63 62
67 68 68 67 68 68 68 67 66 66 66 65 66 66 66 66 66 66 66 65 65 65 63 62 63 64 64 64 64 63 61 61 53 54 55 57 59 61 61 61 62 62 62
66 67 67 68 67 67 67 66 66 66 66 66 66 66 66 67 66 66 66 65 65 65 65 64 63 64 63 63 63 62 61 59 53 53 54 54 62 60 60 60 60 61 60
63 65 66 66 65 65 66 66 66 66 66 66 66 66 66 66 65 65 65 64 64 64 65 65 63 63 63 63 61 61 61 60 54 54 52 52 60 58 58 57 57 59 59
61 62 62 62 63 62 63 65 66 66 66 66 66 65 65 65 65 65 64 64 64 64 64 65 63 62 62 61 58 57 57 57 55 54 55 54 59 57 57 56 56 57 58
59 58 59 59 60 62 63 64 65 66 65 65 64 64 61 57 58 57 61 62 63 63 62 62 60 59 58 57 56 55 55 50 52 54 54 61 59 57 56 56 56 55 55
56 57 58 59 60 61 58 60 62 62 61 61 59 60 58 60 58 57 60 63 61 59 58 57 55 53 50 44 43 47 42 47 47 50 54 59 57 57 56 56 55 54 54
55 56 58 57 58 61 61 58 59 59 59 60 60 59 60 60 59 58 56 52 52 52 45 46 44 42 45 43 43 43 42 41 43 48 51 56 56 55 56 55 54 53 52
56 58 59 59 57 60 61 58 58 56 58 59 58 59 60 59 59 57 52 51 50 48 48 47 45 46 45 44 44 43 42 39 38 38 41 54 55 54 55 55 53 53 51
55 56 57 59 58 60 60 58 57 57 56 57 57 59 59 58 58 53 52 50 48 47 47 46 45 43 43 41 41 40 39 40 41 39 40 54 55 54 50 55 53 52 49
54 55 56 57 60 61 59 58 57 59 59 59 59 60 59 57 55 52 50 48 47 47 46 45 44 41 40 40 40 40 38 37 41 43 41 48 54 56 52 53 51 50 48
52 54 57 60 63 61 59 58 60 61 61 59 60 59 58 55 54 52 49 48 47 48 47 46 43 42 40 38 39 38 36 37 38 43 46 48 48 53 54 51 47 45 46
54 55 57 59 62 62 59 59 61 61 61 61 61 60 56 53 53 52 49 48 47 47 45 43 42 40 39 38 39 36 36 34 37 41 45 46 44 43 48 48 47 43 39
54 56 57 60 62 62 60 60 61 60 60 60 60 59 56 52 50 50 48 48 47 44 44 41 41 40 37 38 36 36 36 33 33 31 40 42 40 38 37 41 42 40 39
56 58 58 60 62 62 59 60 59 58 58 59 58 56 54 49 49 49 47 47 45 42 41 40 41 41 41 40 32 35 35 34 32 32 31 29 32 34 33 33 32 34 37
58 58 60 61 61 60 58 57 57 57 57 55 53 53 52 49 48 48 45 45 44 42 42 43 40 40 39 40 37 36 34 35 34 30 31 30 29 30 33 32 30 28 28
57 59 60 61 60 59 58 57 57 56 56 52 50 52 49 49 47 47 46 44 43 41 42 42 41 39 39 40 35 34 31 32 32 30 30 29 33 29 28 29 31 31 30
57 59 60 61 60 59 59 57 54 54 53 49 47 48 47 47 46 45 45 43 41 38 38 41 41 40 36 38 38 33 28 26 32 33 32 29 32 30 30 30 30 30 31
58 60 61 60 59 59 58 57 54 54 52 51 49 48 46 47 45 41 39 40 40 39 40 40 40 41 40 36 38 35 38 36 28 26 32 32 31 29 32 30 29 30 30
58 60 61 60 59 59 58 58 57 56 54 51 48 46 43 42 40 38 39 41 40 39 42 43 43 41 40 37 36 37 37 35 34 30 25 27 28 29 29 30 30 29 30
60 60 61 60 59 59 58 58 57 55 51 49 45 43 40 39 38 39 38 39 40 41 42 42 42 42 39 38 37 37 34 31 29 29 27 27 28 28 29 30 30 29 30

GFSSE_sfc_dewp_036.txt.gz
Dewpoint
63 64 70 71 71 71 71 71 70 70 69 69 68 68 67 67 67 66 66 66 67 66 64 64 66 68 64 63 65 65 65 65 65 64 63 61 61 62 64 65 65 61 66
63 63 70 70 71 71 71 70 69 69 69 68 67 67 67 67 66 66 66 67 67 66 65 65 65 66 63 64 64 65 64 65 64 64 63 61 61 61 62 62 64 62 65
63 62 66 69 70 70 70 69 69 69 68 68 67 67 67 67 67 66 67 67 68 67 66 66 65 66 64 65 66 65 63 63 63 62 62 50 55 62 61 61 62 61 63
64 62 62 69 69 69 69 69 68 68 67 67 67 67 67 67 67 67 67 67 68 68 67 65 66 66 65 66 66 65 63 62 63 63 50 51 53 62 62 62 62 61 60
65 63 63 69 69 69 68 68 67 67 67 67 67 67 67 67 67 67 67 66 66 67 66 66 66 66 66 66 65 64 63 62 62 55 51 53 54 60 62 62 62 62 62
66 64 68 68 68 68 68 67 67 66 66 66 67 67 67 67 67 67 66 66 65 65 63 65 65 65 65 65 65 63 63 62 61 49 52 56 56 60 61 62 62 62 62
67 67 66 67 68 68 68 67 67 66 66 66 66 67 67 67 67 67 66 66 65 65 64 63 64 65 65 65 63 62 61 60 47 47 50 53 57 59 59 60 61 61 61
67 67 67 67 68 67 67 67 66 66 66 66 66 66 67 67 67 67 66 66 66 65 64 65 65 64 64 62 61 61 60 60 49 47 49 52 60 57 57 58 59 59 59
67 67 66 66 65 65 66 66 66 66 66 67 67 67 67 66 65 65 65 65 65 65 64 64 64 64 62 61 60 61 61 60 49 49 47 50 58 56 55 56 57 58 58
64 65 63 62 62 62 63 66 66 66 66 67 67 66 65 65 65 65 64 64 65 65 64 63 64 63 60 59 58 57 58 58 48 48 49 53 58 56 55 55 56 57 56
61 61 61 60 60 60 60 65 65 66 66 65 64 64 60 52 53 55 62 64 64 64 63 61 60 60 59 57 56 56 55 45 45 46 48 60 57 56 56 55 55 55 55
58 59 60 58 58 59 58 61 63 61 59 59 57 55 53 57 57 54 61 62 61 61 60 57 56 55 53 46 44 49 43 45 43 44 50 58 57 56 55 55 55 54 54
56 57 58 59 60 59 58 61 60 59 60 60 61 59 59 57 59 57 57 53 53 55 47 48 47 46 48 45 45 45 43 42 40 39 50 56 57 57 56 55 54 54 53
54 55 56 57 57 58 60 57 58 56 57 58 58 59 59 56 58 57 54 53 52 50 51 49 48 49 47 46 46 45 44 41 38 35 46 55 55 54 57 55 53 53 51
50 52 55 57 57 58 59 54 56 56 55 55 55 54 53 54 58 56 54 52 51 50 50 49 47 46 46 45 44 42 39 39 38 33 36 55 55 54 51 55 54 52 49
49 52 54 54 55 54 53 56 55 55 55 55 56 57 59 56 58 55 54 51 50 49 49 48 46 44 43 43 42 39 36 34 38 40 36 44 54 56 52 54 53 51 48
53 54 54 55 55 55 56 55 53 54 54 54 57 62 60 59 58 56 53 51 50 50 50 48 46 45 43 39 37 36 35 37 36 38 38 39 44 53 55 51 48 46 46
53 53 54 55 58 60 60 57 53 56 56 56 59 60 60 57 57 56 53 51 50 49 47 45 44 42 40 37 38 35 36 36 37 38 40 40 39 37 49 48 46 43 41
51 53 53 56 58 61 61 57 57 59 60 59 62 60 59 56 55 54 52 51 51 47 47 44 43 41 37 36 33 36 37 36 36 31 39 41 42 40 40 42 42 42 40
52 54 55 57 59 62 60 58 55 59 61 61 61 59 58 54 54 54 52 52 48 45 45 43 42 39 36 36 26 32 36 35 34 35 34 30 35 38 36 36 34 34 36
54 55 56 57 60 62 58 54 54 57 59 60 60 59 58 55 53 53 50 49 47 45 45 45 40 37 37 39 36 36 36 37 36 33 33 32 31 31 34 31 30 28 31
53 55 57 57 59 60 58 54 56 58 59 58 57 57 56 54 52 51 50 48 47 45 46 44 39 38 39 38 37 33 31 32 34 34 32 31 35 30 29 30 31 31 30
53 55 55 57 59 61 59 56 56 58 59 56 54 54 53 53 50 48 50 48 48 45 42 41 40 41 39 39 40 31 27 28 30 32 35 32 34 32 31 30 31 30 31
55 56 56 56 58 60 60 57 56 54 56 57 55 52 51 51 50 47 48 48 46 42 40 39 40 42 41 38 38 33 36 32 22 25 32 33 34 32 33 32 30 31 31
55 56 58 58 58 60 61 60 58 57 58 58 54 52 52 52 50 47 46 45 44 40 40 42 43 42 41 36 33 36 35 33 34 29 24 23 26 27 29 30 31 32 31
56 57 59 59 58 60 61 61 60 59 58 57 53 51 50 49 49 46 42 43 43 40 42 45 44 44 39 37 34 34 31 30 28 27 26 26 26 28 28 29 31 30 30

GFSSE_sfc_dewp_039.txt.gz
Dewpoint
60 65 71 72 72 71 71 71 71 70 70 69 69 68 68 68 67 67 67 68 68 68 68 68 65 64 64 65 65 64 65 65 64 64 64 62 62 63 64 65 64 62 66
62 65 70 71 72 72 71 71 70 69 69 68 68 68 68 67 67 67 67 67 67 67 67 66 63 63 63 63 64 64 63 64 65 64 64 62 62 62 62 62 64 62 65
63 64 68 70 71 71 71 70 70 69 68 68 68 67 67 67 67 68 68 68 68 67 66 65 64 63 63 63 64 63 62 63 62 63 63 51 57 62 62 63 63 61 62
64 63 68 70 70 70 70 69 69 68 68 68 67 67 67 68 68 68 69 69 68 68 66 65 64 64 64 64 65 63 62 63 61 62 51 51 53 62 63 62 62 62 61
63 62 68 69 69 69 69 68 68 68 67 67 67 68 68 68 68 68 68 69 69 68 66 65 64 64 64 66 65 64 63 63 62 54 51 53 53 59 62 62 62 62 62
64 65 68 68 68 69 68 68 67 67 66 67 67 68 68 68 67 67 67 67 68 68 66 65 64 64 65 65 64 62 62 62 62 49 51 55 55 60 60 61 61 62 62
65 66 67 67 68 68 68 68 67 67 67 67 67 67 67 67 68 67 66 66 66 67 66 64 63 64 65 64 62 61 62 62 46 48 50 53 56 58 58 59 60 60 60
66 67 67 68 68 67 67 67 67 66 67 67 67 67 68 68 67 67 67 66 66 66 66 65 65 64 63 61 60 61 61 62 48 48 51 52 58 57 57 58 58 58 58
67 67 67 66 66 67 66 66 66 66 67 67 67 67 67 66 66 66 66 65 65 65 65 65 64 63 61 61 60 60 59 60 49 48 48 51 57 56 56 57 57 57 57
66 65 66 66 66 66 66 66 66 66 67 67 67 66 65 65 65 65 65 66 65 65 65 64 63 61 59 59 58 58 58 59 47 46 50 53 57 55 55 56 56 56 56
62 63 62 62 62 63 64 65 66 67 66 65 64 63 60 53 54 57 64 65 65 64 64 63 62 61 60 58 57 55 57 44 43 43 51 60 57 56 55 55 55 56 55
59 60 60 59 59 58 60 64 63 62 59 59 57 58 53 58 57 57 62 63 63 62 61 61 60 60 58 46 45 53 42 43 40 41 53 59 57 56 56 55 55 55 54
58 57 58 58 58 57 57 61 61 59 59 59 58 60 61 60 60 60 59 56 57 57 49 49 49 49 50 47 46 46 44 41 38 36 52 57 57 57 56 55 55 54 53
56 56 57 58 57 58 58 58 60 60 60 60 58 60 62 60 62 59 56 55 55 52 52 51 50 52 49 47 46 45 44 39 35 34 49 56 55 55 57 55 55 53 52
54 55 56 56 55 56 57 59 60 58 57 57 58 58 58 59 61 56 55 54 53 53 52 51 50 48 47 46 45 41 37 37 37 33 42 55 55 53 53 55 55 53 51
53 54 55 56 58 57 56 57 57 55 53 55 56 56 56 54 60 55 56 53 53 52 51 50 49 46 43 43 42 38 36 34 38 39 36 47 56 56 52 55 55 52 50
51 54 55 56 56 56 55 56 51 51 50 52 53 60 57 56 61 58 55 54 53 52 52 51 48 45 43 39 37 36 34 36 36 37 37 38 49 54 54 52 53 49 48
49 49 50 50 54 56 54 55 51 54 55 53 55 59 60 58 59 59 55 54 53 53 51 49 45 43 41 38 38 36 36 35 36 37 39 39 37 42 50 49 47 45 43
50 51 49 54 53 57 56 56 53 53 53 49 55 60 60 58 58 58 55 54 54 51 50 48 45 42 40 37 35 37 39 36 36 29 38 39 40 37 42 46 45 43 40
52 51 51 55 57 59 57 58 53 52 55 57 60 60 60 57 57 57 55 55 53 50 49 46 45 42 39 39 32 33 40 38 35 36 35 31 34 37 36 39 40 39 40
52 51 53 54 57 58 56 52 51 51 53 59 62 59 60 57 57 57 55 55 52 49 48 48 45 42 39 42 40 41 39 40 38 35 35 32 32 32 33 33 32 29 34
51 52 52 53 55 57 56 52 50 52 53 55 58 60 59 59 56 56 55 53 52 48 49 48 44 40 42 43 41 41 38 36 37 37 35 33 36 33 30 32 33 32 32
52 54 54 54 56 59 57 53 51 53 56 56 56 56 58 58 55 54 54 52 51 49 48 48 44 44 43 43 44 40 35 31 34 36 37 35 36 34 34 32 32 32 32
53 55 55 55 56 59 60 56 53 52 55 57 57 56 55 56 55 52 52 53 52 49 47 46 42 45 45 43 42 40 39 37 31 28 34 36 36 35 37 34 33 32 32
52 55 56 55 55 56 60 60 55 54 55 58 57 57 57 54 53 53 52 53 51 47 49 48 45 47 45 44 41 39 39 37 37 33 31 30 33 30 30 32 33 33 33
51 55 58 55 54 55 60 60 60 57 58 60 58 56 55 54 53 53 50 53 49 48 49 44 47 46 46 44 40 37 37 33 32 33 31 30 28 28 28 31 32 31 31

GFSSE_sfc_dewp_042.txt.gz
Dewpoint
63 69 72 72 72 71 71 71 71 70 70 69 69 69 69 68 68 69 69 69 69 68 65 65 64 64 63 63 63 64 65 65 65 65 64 62 62 62 64 65 65 63 66
66 69 71 71 71 71 71 71 70 70 69 69 69 68 68 68 69 69 68 68 69 68 64 64 63 62 61 62 63 64 65 65 65 64 64 62 62 63 63 62 64 62 64
67 69 70 70 71 71 71 71 70 69 69 69 68 68 67 68 68 68 68 68 69 67 64 64 63 62 61 62 64 64 64 64 65 65 62 57 60 62 63 63 63 62 62
66 68 70 71 71 71 70 70 69 69 69 69 68 67 68 69 69 69 69 68 68 67 64 64 63 62 62 64 64 64 64 64 65 63 53 54 57 63 62 62 63 62 62
66 68 69 70 69 70 69 69 68 68 68 67 67 68 69 69 69 70 69 68 68 67 64 63 63 63 64 64 64 63 63 63 62 55 53 54 56 59 62 62 62 63 62
66 68 69 68 69 69 69 68 68 67 67 67 67 68 68 69 69 69 69 68 68 67 64 63 62 63 65 63 62 63 63 63 62 52 53 57 55 59 60 60 61 61 62
67 69 68 68 69 69 68 68 67 67 67 67 67 68 68 68 68 68 68 68 68 67 65 63 63 64 64 63 62 62 62 60 50 51 52 55 55 58 58 59 59 59 60
66 68 68 69 68 67 67 67 67 67 67 67 67 67 68 67 67 67 67 67 67 66 66 65 65 64 63 62 61 60 60 62 52 51 52 53 58 57 57 58 58 58 58
66 67 66 67 67 67 66 66 66 67 67 67 68 68 67 67 66 66 66 67 66 66 65 65 64 63 62 61 58 58 60 61 55 51 50 53 58 56 57 57 57 57 57
65 65 64 65 65 65 65 66 66 66 67 67 66 66 65 65 65 65 65 65 65 65 65 64 63 62 60 58 57 55 57 58 48 51 53 56 58 56 56 56 56 56 56
63 63 64 64 63 65 65 66 66 67 66 65 64 64 61 58 57 60 64 65 65 64 64 63 62 60 58 57 56 57 57 47 44 53 56 61 58 56 56 55 55 55 55
59 60 61 63 63 63 63 64 65 64 62 61 60 59 58 60 60 61 63 63 63 63 63 62 61 60 58 49 49 55 46 45 47 54 58 61 58 57 56 55 55 55 55
58 58 59 60 60 60 60 62 62 61 59 60 60 61 60 60 60 60 60 59 58 58 52 54 55 53 53 50 50 48 46 43 42 49 57 59 59 57 56 55 55 54 54
56 57 57 58 58 59 60 60 61 61 61 59 60 61 60 60 59 58 58 58 57 55 52 53 55 53 50 48 48 46 43 40 39 47 55 57 57 57 57 56 55 54 54
55 55 55 55 55 56 57 57 58 60 59 60 59 60 60 60 61 59 58 57 55 57 56 55 53 51 48 48 45 41 38 39 39 42 48 55 56 54 56 56 56 54 52
54 54 55 55 55 55 54 54 56 58 57 59 59 59 60 60 60 59 59 58 57 56 55 54 52 49 48 47 43 38 37 38 39 40 46 51 56 57 55 56 56 53 52
53 54 54 55 55 54 54 56 57 55 54 51 54 59 60 58 61 60 57 57 57 56 55 53 50 48 46 41 39 38 39 37 39 38 41 48 53 55 55 58 55 53 51
52 52 54 56 55 55 55 54 55 55 51 49 53 60 59 58 61 60 59 57 57 55 54 53 50 48 45 42 40 39 38 37 36 36 40 41 47 49 52 53 52 48 47
51 52 53 53 53 52 53 53 52 53 57 54 56 58 61 60 60 60 58 58 57 55 55 52 49 47 44 41 40 40 40 39 37 33 38 39 39 43 47 51 50 48 45
50 50 51 51 51 52 52 54 53 55 55 55 55 61 60 59 60 60 60 58 56 55 53 51 47 44 44 43 36 37 42 41 38 38 37 35 37 37 41 44 45 44 46
51 49 49 50 52 54 55 55 55 54 55 57 60 60 62 60 59 59 59 58 56 54 52 51 48 43 41 44 43 44 44 42 40 39 39 37 35 35 34 35 37 38 40
51 51 53 51 54 56 57 54 55 54 54 56 60 62 61 61 58 58 59 58 56 53 53 50 48 46 45 46 44 43 42 40 40 40 39 37 35 35 35 34 34 34 35
51 51 52 54 55 57 57 55 53 54 53 54 57 61 60 61 59 58 58 56 56 55 52 51 49 46 44 46 44 42 39 36 37 40 40 38 39 38 36 36 35 33 34
52 53 52 53 53 55 57 57 53 50 51 56 58 58 59 60 59 57 56 56 55 54 51 51 49 47 47 45 46 44 44 39 35 32 38 39 40 37 38 37 35 35 34
53 54 54 54 54 56 58 59 58 53 57 60 59 59 58 59 58 58 55 54 55 54 53 50 47 48 48 44 45 44 42 41 40 36 33 35 37 37 38 40 37 36 35
52 54 56 56 55 56 59 59 59 57 57 59 59 58 58 57 56 55 54 55 55 54 51 49 48 49 46 45 42 41 40 37 36 37 35 35 33 33 34 37 37 34 34

GFSSE_sfc_dewp_045.txt.gz
Dewpoint
64 70 71 72 72 71 71 70 70 70 69 69 69 69 69 70 70 70 69 68 68 67 64 63 62 63 63 63 64 66 66 66 65 65 65 63 63 63 65 65 66 63 66
63 69 70 71 71 71 71 70 70 69 69 69 69 68 69 70 69 70 69 67 67 66 63 62 61 62 64 64 65 66 66 65 64 65 64 62 63 63 63 63 64 61 64
63 65 69 71 71 71 71 70 70 69 69 69 68 69 69 69 69 69 69 66 66 66 62 61 61 62 62 63 65 65 65 63 63 64 63 60 58 62 63 62 63 62 62
61 60 69 70 71 71 70 69 69 69 69 68 68 69 69 69 69 69 68 66 66 66 62 60 60 62 63 64 65 64 64 63 62 61 56 57 58 62 63 63 63 62 61
67 66 69 69 70 70 69 69 68 68 67 67 68 69 69 69 69 69 68 66 67 65 62 60 61 62 63 63 63 63 64 62 61 58 55 56 57 60 62 62 62 62 62
67 68 69 69 70 69 69 69 68 67 67 67 68 69 69 69 69 69 68 67 67 65 62 61 61 62 63 62 62 62 62 60 58 55 55 56 55 59 59 59 61 61 61
66 65 68 68 68 68 69 69 68 67 67 68 68 69 69 70 69 69 68 67 66 65 63 62 62 62 62 62 62 62 61 60 53 54 54 54 54 58 59 58 59 59 59
66 67 68 69 68 68 68 68 67 67 68 68 68 68 69 69 69 69 68 67 66 66 65 64 64 62 61 61 61 60 62 59 53 53 53 54 58 58 58 58 58 57 57
67 67 66 67 68 67 67 67 67 67 67 67 67 67 67 67 67 68 68 67 66 66 65 64 63 61 60 59 59 59 60 59 52 53 53 54 58 57 57 57 57 56 56
65 64 64 65 66 66 66 66 67 67 67 67 66 66 65 66 66 67 66 66 65 65 64 63 62 60 58 56 56 57 58 58 52 53 55 55 57 57 56 56 56 56 56
62 63 63 63 64 64 64 66 67 67 66 65 65 64 61 59 60 62 65 65 65 64 64 62 61 59 57 56 55 57 53 52 54 56 57 60 58 57 56 56 55 55 55
61 62 62 61 61 62 63 65 65 64 62 61 59 57 56 59 60 62 63 64 64 63 62 62 60 58 54 47 48 51 44 52 56 57 59 61 58 56 56 56 55 55 55
59 60 62 61 62 62 62 60 63 63 61 59 58 59 59 61 60 60 59 60 60 60 57 58 56 51 51 49 46 43 40 44 51 55 59 61 59 56 57 56 55 55 54
56 57 59 60 61 61 62 61 61 61 59 59 60 58 58 58 57 58 56 55 53 53 50 51 52 51 47 46 45 41 37 39 48 52 57 59 60 57 57 57 56 55 54
54 55 57 57 58 58 59 60 60 60 60 61 59 58 59 56 56 57 57 55 55 54 51 53 50 48 46 43 40 37 38 37 43 45 50 57 57 57 57 57 56 55 55
54 54 55 55 56 56 56 57 57 57 58 60 58 58 58 59 57 57 57 56 55 55 54 51 51 48 47 42 37 36 36 38 38 45 45 51 55 57 57 56 56 54 55
54 54 54 54 55 54 55 56 55 55 53 48 49 54 56 58 59 58 58 58 56 54 54 52 50 47 44 41 37 36 36 37 37 37 45 50 53 56 57 59 56 54 54
53 53 54 55 55 55 54 55 56 56 55 49 46 56 56 57 60 59 58 56 56 53 51 50 47 45 44 41 38 36 37 37 34 35 44 49 49 49 55 57 57 54 52
52 53 53 53 54 53 54 54 52 52 53 48 48 51 58 57 60 58 59 58 54 53 53 51 49 46 41 40 38 39 37 38 35 35 38 41 47 47 48 53 52 51 49
51 53 52 51 51 51 50 49 48 49 48 47 53 55 60 59 59 60 60 58 54 53 53 51 46 44 42 40 38 36 39 39 37 37 36 38 40 47 46 46 47 47 50
50 51 51 50 51 48 49 48 47 49 50 53 55 59 56 56 59 60 59 56 54 53 51 49 46 40 39 42 40 42 42 40 37 37 38 36 36 36 44 44 44 42 44
49 50 50 49 49 49 50 49 50 51 53 53 58 59 58 58 60 60 58 56 55 54 51 49 45 43 41 43 41 42 40 38 40 38 38 37 35 35 34 35 35 38 37
47 48 49 49 49 50 50 53 54 54 52 53 56 58 58 60 60 59 58 57 56 54 52 48 48 44 41 44 42 41 37 36 38 39 39 38 35 36 35 35 35 33 35
49 48 48 49 49 50 54 54 52 51 49 51 55 58 59 60 59 59 57 57 57 56 52 49 49 47 47 46 45 43 42 38 34 31 37 38 37 36 36 36 35 34 33
49 49 50 51 50 53 55 55 56 51 51 53 55 58 59 59 58 58 57 56 55 54 52 51 50 49 48 46 44 44 43 39 38 36 33 34 38 38 37 38 37 36 34
49 49 50 51 52 53 55 57 57 55 52 56 57 57 57 58 57 58 56 54 54 54 52 52 49 48 48 48 44 43 41 40 39 38 35 35 34 34 37 38 39 37 36

GFSSE_sfc_dewp_048.txt.gz
Dewpoint
66 70 71 72 71 71 70 70 70 69 69 69 70 70 71 69 69 69 68 68 67 66 64 64 66 64 64 64 63 64 65 65 65 65 64 63 64 64 64 64 65 63 66
66 70 71 71 71 71 70 70 69 69 69 69 70 70 70 69 68 68 68 67 66 65 63 64 64 64 64 64 66 66 66 66 65 64 63 63 62 62 63 62 64 63 66
67 69 68 70 70 71 70 70 69 69 69 70 70 70 70 69 68 68 67 66 65 64 64 63 64 64 64 64 65 65 64 64 64 64 62 58 59 62 62 61 62 62 62
62 67 69 69 69 70 70 69 69 69 69 70 70 70 70 70 68 67 67 66 65 64 63 63 64 63 62 64 64 65 64 63 63 60 57 58 58 62 62 61 61 60 61
61 64 65 64 67 70 70 69 68 68 68 69 69 70 70 69 68 68 66 65 65 64 62 63 62 61 62 64 64 64 63 63 62 57 56 56 56 58 61 62 62 61 60
64 62 64 64 67 70 69 69 68 67 68 68 68 69 70 69 68 67 66 66 65 64 61 61 60 61 62 64 64 63 62 61 58 55 55 57 55 59 60 61 61 60 59
65 64 64 66 66 69 69 68 68 68 68 68 68 68 69 69 68 67 66 65 65 64 61 60 60 62 62 63 63 62 61 60 54 54 54 54 55 58 59 58 57 57 56
65 66 67 68 68 68 68 67 67 68 68 68 69 69 69 69 68 67 66 66 66 65 64 62 62 62 61 62 62 61 60 58 54 54 54 55 58 58 58 58 57 57 56
66 66 67 66 67 65 64 65 67 68 68 68 68 68 68 68 68 67 67 66 65 64 63 62 62 61 61 60 61 61 59 58 53 53 53 54 58 58 58 57 57 56 56
64 65 64 65 66 64 62 62 66 67 67 67 67 67 67 67 67 67 66 65 65 64 63 61 61 61 60 59 61 60 59 58 52 54 55 56 57 57 56 56 56 55 55
63 63 63 64 63 63 63 62 63 66 66 66 65 65 64 64 65 63 64 65 64 63 62 61 60 59 56 58 58 59 57 53 54 55 56 60 57 57 56 56 55 55 54
61 61 62 61 61 61 61 61 64 64 62 61 59 58 60 61 62 63 64 64 63 62 61 60 59 57 53 46 47 55 54 56 57 57 57 60 58 57 56 55 55 55 55
60 61 61 61 60 59 59 60 63 63 60 58 56 59 60 61 61 60 60 60 60 61 57 56 52 50 49 46 42 45 50 54 56 57 59 60 58 56 56 56 55 55 53
58 61 61 60 61 59 58 57 62 61 58 58 57 59 58 57 56 57 57 57 55 54 53 51 51 49 46 44 40 39 45 50 54 55 58 60 60 56 57 55 56 55 53
55 59 60 60 61 61 59 61 61 60 59 60 58 58 57 55 55 56 54 53 52 52 50 52 50 47 44 40 37 38 39 46 48 50 53 58 59 59 56 56 56 56 54
54 56 58 59 60 59 58 59 59 59 61 60 58 57 56 55 55 55 54 53 53 53 51 51 49 46 44 38 36 36 39 41 43 44 47 51 55 58 58 56 56 56 55
54 55 55 56 56 57 57 57 57 56 53 57 58 58 57 56 56 56 56 55 54 55 53 51 50 48 45 39 35 36 37 38 41 43 45 50 53 56 55 59 57 55 55
53 55 56 56 55 56 56 56 56 55 53 48 50 56 57 57 59 58 57 57 56 55 53 51 49 44 43 39 37 35 37 36 35 40 46 49 50 51 57 59 59 56 55
53 54 55 55 55 55 55 55 53 52 51 48 47 50 56 56 59 59 58 58 55 53 52 50 48 46 43 40 37 37 37 37 35 38 44 47 48 48 51 56 56 55 55
52 53 54 55 54 54 53 52 51 52 51 50 48 50 52 56 57 59 59 58 55 52 52 50 48 46 42 40 37 37 37 38 36 38 42 42 47 47 48 48 49 49 52
52 52 52 53 52 51 50 49 49 49 50 49 49 53 55 57 59 59 58 58 55 53 52 51 46 41 40 41 40 41 42 41 37 36 37 38 42 46 46 46 46 44 48
51 52 51 51 50 49 48 47 48 48 49 48 48 52 56 56 57 59 59 58 55 53 51 50 45 42 39 42 39 42 39 40 39 38 37 37 36 40 44 44 44 42 42
50 51 51 50 48 49 48 47 47 48 48 47 47 52 56 56 55 59 59 57 55 54 52 52 46 43 43 45 43 42 39 38 38 38 39 38 36 36 36 38 39 38 39
49 50 50 49 49 49 50 48 47 47 47 48 49 52 56 57 58 59 59 57 56 55 53 52 48 45 45 44 44 44 42 38 34 32 37 39 37 35 35 36 36 35 36
48 48 49 49 48 48 49 50 50 52 53 52 52 54 57 58 59 59 58 57 56 57 55 51 49 48 48 48 45 45 43 40 39 36 34 34 37 38 37 36 37 36 34
48 47 47 48 48 48 49 51 53 54 52 52 53 54 55 58 59 58 58 58 57 57 55 52 50 49 49 47 46 45 44 43 40 37 35 35 34 35 37 38 38 37 37

GFSSE_sfc_dewp_054.txt.gz
Dewpoint
67 65 70 70 70 69 70 69 69 70 70 70 70 70 70 70 69 68 67 67 67 67 65 65 65 65 65 65 64 64 64 65 65 66 66 65 65 66 66 65 65 63 66
69 70 70 70 70 70 70 70 69 70 70 70 70 70 70 69 68 67 67 67 67 66 64 63 63 63 64 64 64 65 65 65 64 64 64 62 64 64 64 64 64 63 65
69 70 69 70 70 69 70 70 70 70 70 70 70 69 69 69 67 67 67 67 67 67 65 65 65 65 65 64 65 65 64 64 64 63 61 57 57 61 60 61 61 62 62
69 69 69 69 69 69 69 70 70 70 70 70 70 69 69 68 68 68 67 67 67 67 65 65 65 65 65 65 65 64 63 62 61 60 56 57 58 61 61 61 61 59 58
68 67 68 69 69 69 69 69 70 70 69 69 69 69 68 68 67 68 67 67 67 66 65 65 65 65 65 65 64 64 62 61 60 57 56 56 58 59 60 58 58 58 60
63 66 67 67 68 69 69 69 69 70 68 68 68 68 67 67 67 67 66 66 66 64 63 64 65 64 64 64 63 63 62 60 58 55 56 58 57 59 58 58 58 57 58
63 65 67 68 68 69 69 69 69 69 68 68 68 67 67 66 66 66 66 66 64 63 63 63 64 65 64 63 62 61 60 59 54 54 55 55 55 58 58 58 57 56 56
63 63 66 68 67 67 67 67 67 68 68 67 67 67 66 66 66 66 65 64 64 65 66 66 65 63 63 62 61 61 61 58 55 55 55 55 58 58 58 57 56 56 56
64 63 63 64 65 65 65 64 65 67 67 67 67 67 66 66 65 65 65 64 63 64 65 65 63 63 63 61 61 61 60 58 54 54 54 54 58 58 58 57 56 55 55
65 64 64 63 63 62 63 63 63 66 66 67 67 67 66 66 65 63 62 62 62 62 63 64 63 62 62 61 61 60 60 57 54 54 55 56 57 57 57 56 56 55 54
63 60 61 61 61 60 60 61 63 63 63 65 67 66 65 64 62 60 61 61 61 61 62 63 63 62 61 61 61 60 56 54 55 55 56 59 58 57 57 56 55 55 54
61 60 60 59 59 58 60 61 60 59 61 64 66 65 64 62 60 59 61 61 60 60 60 62 63 62 59 57 58 57 54 55 55 56 57 59 58 57 56 56 54 53 53
61 60 60 58 58 57 57 57 59 58 61 63 65 64 62 61 61 60 58 57 56 57 52 52 50 51 53 53 53 54 55 55 56 57 59 59 57 57 56 57 56 54 52
60 60 60 58 58 57 55 55 58 58 60 60 62 62 61 60 58 58 57 55 53 51 50 49 47 47 49 51 53 54 55 55 56 57 59 59 59 57 58 58 57 56 53
59 59 60 59 58 56 53 54 56 58 58 60 60 61 60 58 56 56 56 54 52 51 49 47 44 44 45 47 50 53 54 55 55 56 57 59 59 58 58 58 57 56 54
58 59 59 58 58 56 52 53 54 54 56 59 60 59 57 56 56 55 54 52 50 50 50 47 43 40 39 41 45 48 50 52 52 54 54 56 58 58 58 58 57 56 56
56 57 59 59 57 57 56 55 55 56 54 57 59 57 55 54 54 54 52 52 50 50 50 47 45 41 38 38 40 44 45 45 45 47 49 51 53 56 58 59 58 58 56
55 56 58 60 57 56 56 57 59 59 58 57 57 56 54 54 55 54 52 52 51 51 51 48 46 43 39 38 38 39 41 42 43 43 45 48 49 50 55 58 59 59 57
54 55 56 59 58 58 58 58 58 58 57 57 56 55 55 54 55 53 54 54 53 52 52 49 47 45 40 38 37 38 39 39 40 42 44 47 48 50 51 55 58 58 59
54 55 56 57 58 58 57 56 55 55 52 54 55 56 56 56 56 56 56 55 54 53 52 50 47 46 44 40 35 36 38 38 38 40 44 46 47 48 51 54 57 56 57
53 54 54 56 56 56 56 56 55 54 52 51 53 56 57 57 59 57 57 56 55 53 53 50 47 45 43 42 39 40 40 39 39 38 41 45 47 47 49 51 52 52 53
52 53 54 55 56 56 56 55 55 55 54 54 51 53 55 56 58 58 57 56 55 54 52 50 47 44 44 42 39 40 38 40 42 41 38 41 43 45 46 48 49 49 48
52 52 54 54 54 54 54 55 55 54 53 53 51 49 52 54 54 56 57 56 55 53 52 51 48 45 43 43 43 41 38 38 39 40 40 38 40 40 44 46 47 47 46
50 51 52 52 51 52 53 53 53 53 50 51 50 48 49 53 55 55 56 57 56 55 53 52 51 48 46 45 46 45 43 42 38 37 38 40 39 38 38 43 45 45 45
50 51 50 51 51 49 49 50 52 52 52 52 49 49 50 51 54 55 54 55 55 55 54 53 52 50 50 49 47 46 44 42 42 41 39 39 39 40 39 38 40 42 41
50 51 50 50 50 49 49 49 49 49 48 49 49 49 49 51 52 54 55 55 55 55 54 53 52 52 51 50 50 49 45 43 42 40 39 39 37 38 40 40 39 39 39

GFSSE_sfc_dewp_057.txt.gz
Dewpoint
67 68 70 70 71 71 71 71 71 71 71 71 70 70 71 71 71 70 70 69 69 68 66 66 66 66 65 66 66 66 67 68 67 67 67 66 66 66 66 66 66 63 67
67 68 69 70 71 71 71 71 71 71 71 71 70 70 70 70 70 69 69 68 68 67 65 65 65 64 64 64 65 66 66 65 65 66 66 65 64 64 65 65 66 63 65
66 65 67 70 70 70 71 71 71 71 71 70 70 70 70 69 68 68 67 67 67 66 64 64 64 64 64 64 65 65 65 64 64 63 63 57 58 62 62 62 63 62 62
65 65 68 70 70 70 70 70 70 71 70 70 70 70 69 68 68 68 67 66 66 66 64 63 63 64 64 65 65 65 63 63 63 62 56 54 57 62 62 59 60 61 60
67 67 67 69 69 70 70 70 70 70 70 69 69 69 68 68 68 68 67 67 66 66 65 64 63 64 64 65 64 64 63 63 62 58 56 58 55 58 59 60 59 60 59
67 68 68 68 69 70 70 70 69 69 69 68 68 68 68 69 68 68 67 67 67 67 65 64 63 64 65 64 64 63 63 62 59 54 56 57 55 59 59 59 58 58 57
65 68 68 67 68 69 69 70 69 69 68 68 68 67 68 68 68 67 67 66 66 67 66 64 63 64 64 63 62 62 61 61 56 54 53 54 56 59 59 58 57 57 57
64 65 67 68 68 68 68 69 68 68 68 67 67 67 67 67 67 66 66 65 65 66 66 65 64 64 63 62 61 61 61 59 54 54 53 54 58 58 58 57 56 56 56
65 64 65 66 66 66 66 67 67 67 67 67 66 66 66 66 66 66 65 65 66 66 66 65 64 63 63 62 61 61 60 60 54 54 52 53 58 58 57 57 56 56 55
65 65 65 65 64 63 65 65 65 66 66 66 66 65 65 66 65 65 64 65 67 66 65 64 63 63 62 62 61 61 60 59 54 54 53 54 58 58 57 56 56 55 55
64 64 63 63 62 62 64 62 64 66 66 66 66 65 64 63 62 59 61 64 65 65 63 63 63 62 61 61 61 60 58 53 54 54 53 59 58 57 57 56 56 55 54
60 62 62 62 62 62 63 62 62 63 63 65 65 65 63 63 60 57 60 62 63 63 63 63 62 62 58 54 56 57 53 55 54 54 54 59 58 57 56 56 55 55 54
58 59 61 60 60 61 60 61 61 60 62 63 65 63 62 60 61 59 57 56 59 61 59 60 59 54 56 54 53 53 55 55 54 54 56 59 58 58 56 55 54 53 53
58 60 60 59 59 59 58 57 59 60 62 62 65 63 60 59 59 58 55 54 54 54 57 58 55 57 56 55 54 55 55 54 54 54 56 59 59 57 58 56 55 53 52
59 59 59 59 58 58 56 57 58 60 61 61 63 61 58 57 57 56 54 52 50 51 52 53 54 54 54 54 54 54 55 56 56 54 54 59 59 59 58 58 57 55 54
59 59 59 58 58 57 55 57 58 59 60 61 62 61 59 57 58 54 53 52 51 49 48 50 52 52 52 53 54 54 54 55 56 57 55 56 58 59 59 58 58 57 56
59 59 59 59 58 56 55 56 57 58 59 60 61 60 59 58 58 56 52 52 52 51 49 47 49 49 49 49 51 52 53 54 54 56 55 54 55 58 59 60 59 58 57
57 59 59 59 58 57 56 56 57 56 57 58 59 60 57 56 58 57 53 52 53 51 48 45 43 41 42 43 45 46 47 48 49 50 52 53 54 53 56 59 60 60 57
56 57 59 58 57 57 57 57 59 58 56 56 58 58 58 56 56 55 54 55 54 52 51 48 46 44 42 41 41 43 44 43 45 42 45 48 50 52 52 56 59 59 59
55 56 57 58 57 57 57 58 59 59 57 56 57 56 57 55 55 57 56 56 53 53 52 50 49 48 44 41 33 38 42 42 42 43 44 44 46 48 48 52 55 56 58
55 55 56 57 57 57 57 57 57 57 57 57 56 57 58 56 56 56 57 56 54 53 54 53 51 49 46 44 40 40 40 42 43 40 42 44 47 47 49 49 50 52 54
53 54 55 57 57 57 57 57 58 56 56 58 57 57 57 57 55 57 57 58 56 56 56 55 53 51 48 45 42 42 42 41 41 42 41 42 47 47 47 49 50 52 52
53 54 54 56 56 57 58 58 58 57 55 55 54 55 56 58 58 57 58 59 59 58 56 57 55 52 49 46 47 46 43 43 43 44 45 41 43 45 47 48 48 51 52
53 54 55 55 56 56 57 56 55 54 52 54 54 52 54 56 56 58 58 59 59 58 57 57 56 54 53 50 47 46 48 45 42 42 42 44 43 42 45 44 45 47 49
52 52 54 54 54 55 56 56 55 53 54 53 53 52 52 53 55 55 56 57 59 59 59 57 56 55 54 53 50 49 47 45 47 45 44 41 41 42 42 43 43 45 47
51 52 53 54 52 53 54 54 54 54 53 52 53 52 51 52 54 55 54 55 57 59 59 59 58 56 55 54 52 50 48 46 45 44 45 45 42 43 42 43 44 43 43

GFSSE_sfc_dewp_060.txt.gz
Dewpoint
65 66 71 72 72 72 72 71 71 71 71 71 70 71 71 71 71 70 70 69 69 69 68 67 67 67 68 68 67 67 68 68 68 68 68 67 66 67 66 67 66 64 67
66 66 70 71 72 72 71 71 71 71 71 71 70 71 71 71 71 70 70 69 68 68 67 66 66 67 66 66 66 67 67 67 66 66 67 66 66 66 66 66 66 64 65
66 66 67 70 71 72 71 71 71 71 71 70 71 71 71 71 70 70 69 68 68 68 66 65 64 65 66 65 66 65 65 65 66 65 64 59 60 63 63 63 64 64 63
66 66 66 70 71 72 71 71 71 71 71 70 71 70 70 70 69 68 68 67 67 67 65 64 64 64 65 65 65 65 65 64 64 64 54 56 57 62 62 61 61 62 61
67 63 64 69 70 71 71 71 71 70 70 70 70 70 69 69 68 68 67 66 66 66 63 63 64 65 65 65 64 64 64 63 63 56 52 54 54 60 61 60 60 60 61
67 63 66 69 69 70 71 71 70 70 69 69 69 69 69 69 68 67 66 66 67 66 63 63 64 65 65 64 64 63 62 63 60 52 51 56 55 60 59 59 58 58 58
66 68 66 68 68 69 70 70 70 69 69 68 68 68 68 68 68 67 66 66 66 65 65 64 64 64 64 64 63 63 62 62 52 50 52 54 57 59 59 58 58 58 57
67 67 68 67 67 68 69 69 69 68 68 68 68 68 68 68 67 67 67 67 66 66 65 65 65 64 63 63 62 62 61 59 51 51 52 53 59 58 58 58 57 57 57
67 66 66 66 65 66 65 68 66 68 67 67 67 67 67 67 67 67 67 67 67 65 65 65 64 63 62 62 61 61 61 61 51 51 50 53 58 58 58 57 57 56 56
65 65 66 66 66 65 65 66 65 65 67 66 67 67 66 66 66 65 65 66 67 66 65 64 64 63 62 62 61 61 60 60 51 50 51 54 58 57 57 57 56 56 55
65 65 66 65 65 65 65 65 66 67 66 66 66 66 65 63 62 62 62 65 66 64 63 63 63 62 62 61 61 60 60 51 51 50 52 59 58 57 57 56 56 55 55
63 63 65 64 64 64 64 63 64 65 65 65 65 65 61 63 62 57 64 65 65 63 63 63 63 61 57 52 54 57 50 52 52 51 53 59 58 57 57 56 56 55 54
62 62 63 63 63 63 63 63 63 64 63 64 64 64 64 62 60 59 63 63 62 61 57 57 57 52 52 50 50 50 53 53 52 51 56 60 58 57 57 56 56 55 53
60 62 61 62 62 63 63 62 62 62 63 62 61 62 62 59 59 59 59 59 59 56 57 56 54 55 54 51 51 53 53 51 51 52 56 60 59 57 56 56 55 54 54
59 59 60 61 61 61 59 60 60 61 62 62 61 61 60 58 58 55 56 57 56 56 56 55 55 55 53 51 51 52 52 52 53 51 53 59 60 59 57 57 55 55 54
59 60 59 59 60 59 58 58 59 61 61 61 61 59 59 57 57 53 54 52 52 54 55 53 53 52 50 50 51 51 51 52 53 54 51 55 59 60 60 58 57 56 55
59 60 59 59 59 58 57 58 59 60 61 60 60 60 58 57 58 56 52 52 50 51 52 51 52 51 49 48 50 50 50 52 52 53 52 52 55 59 59 60 59 57 57
59 59 60 59 59 59 57 59 59 60 60 61 60 58 57 56 57 56 53 52 50 50 49 50 49 49 47 46 48 47 48 49 51 52 51 51 51 50 57 59 60 59 58
57 59 59 59 58 57 57 59 58 59 59 60 60 55 56 54 55 54 52 55 53 50 49 48 47 46 45 43 43 44 46 45 48 45 48 51 52 50 50 58 59 59 59
57 57 59 59 58 57 57 59 59 58 58 59 59 59 55 51 55 54 51 55 53 50 50 49 49 47 45 42 35 40 43 44 44 45 45 44 46 49 49 50 54 54 59
56 57 57 58 58 58 56 56 57 57 56 58 58 58 57 53 55 55 53 54 54 52 52 54 52 51 47 45 40 41 41 45 45 43 44 43 45 46 47 46 47 48 54
54 56 56 57 57 57 57 56 57 57 58 57 57 56 57 57 55 56 57 54 54 53 55 55 55 51 48 47 45 46 44 43 42 43 42 43 47 45 45 48 48 49 50
53 54 55 56 57 57 57 57 57 58 57 57 57 53 54 56 56 55 57 55 56 55 55 57 56 54 51 51 51 49 47 45 47 46 46 44 45 46 46 47 49 48 49
53 54 54 55 57 57 58 56 57 54 53 54 55 56 54 57 57 55 56 56 58 57 56 57 57 56 55 53 52 50 52 51 46 47 45 47 45 45 48 47 45 46 47
53 54 54 54 56 57 57 57 56 55 53 53 54 56 56 57 57 57 57 58 59 60 60 59 59 58 56 56 53 51 50 50 49 48 49 49 47 45 44 46 45 46 46
52 53 53 53 54 57 57 57 57 55 54 54 55 55 55 55 57 58 57 59 59 58 57 57 58 59 58 57 55 54 52 50 48 48 48 50 51 47 46 45 47 47 46

GFSSE_sfc_dewp_063.txt.gz
Dewpoint
59 68 71 72 73 72 72 71 71 71 71 71 70 71 71 71 71 70 70 70 70 70 69 69 68 68 68 68 68 69 68 68 68 68 68 68 67 67 67 68 66 64 68
64 68 71 71 73 72 72 71 71 71 71 71 71 71 71 71 70 70 70 70 70 70 68 68 68 68 68 67 68 68 68 67 68 67 68 67 66 66 66 66 66 64 66
64 67 67 70 72 72 72 71 71 71 71 71 71 71 71 71 70 70 69 69 69 69 67 68 67 67 66 66 67 67 67 67 67 66 65 60 62 65 65 65 64 64 64
64 65 65 70 71 71 71 71 71 71 71 71 71 71 71 71 70 69 69 68 68 68 66 66 66 66 65 66 66 65 66 66 66 65 56 57 60 64 64 64 63 63 63
65 65 65 69 70 71 70 71 71 71 70 70 71 71 71 70 70 69 68 68 68 67 64 65 66 65 65 65 65 64 64 63 63 59 52 56 59 60 62 62 61 61 61
65 66 68 69 69 70 70 71 70 70 70 70 70 70 70 70 69 68 67 67 67 66 65 64 65 64 65 64 64 63 62 63 61 51 53 57 56 60 61 60 59 59 59
65 68 67 68 69 70 70 69 69 69 69 69 70 69 69 69 68 67 66 66 66 66 66 65 64 64 64 63 63 63 63 62 49 50 52 54 57 59 60 59 59 58 58
65 68 68 68 67 68 68 67 66 68 69 68 69 68 68 68 67 66 66 66 65 65 65 65 65 64 64 63 62 61 61 62 51 51 52 54 59 59 59 58 58 57 57
65 67 68 69 66 65 65 66 67 68 68 68 68 68 67 67 66 66 66 66 66 65 65 65 64 64 63 62 62 60 60 61 50 51 51 54 59 58 58 58 57 57 56
65 67 67 67 66 66 65 65 65 67 67 67 67 67 67 66 67 67 66 66 66 66 65 64 64 63 62 62 61 60 59 58 50 50 51 54 59 58 58 57 57 56 56
64 65 67 65 64 64 64 64 65 66 67 66 67 66 65 62 64 64 64 65 65 64 64 64 63 63 62 62 60 60 61 49 50 50 52 60 58 58 57 56 56 56 55
62 65 66 65 65 65 64 64 64 65 66 66 66 65 60 64 63 60 64 64 64 63 63 63 63 62 59 51 53 57 52 51 50 51 53 60 58 58 57 56 56 55 55
61 64 65 65 65 64 64 64 65 64 66 67 66 63 61 64 63 63 65 62 61 61 57 57 57 52 50 48 52 53 53 52 50 51 56 60 58 57 57 56 55 55 54
60 61 62 62 62 62 64 62 63 63 63 65 65 63 63 63 61 61 62 60 58 56 57 54 53 54 51 50 51 54 53 51 51 52 56 60 59 58 57 56 55 54 53
59 61 61 62 61 61 62 63 63 62 62 62 63 62 61 61 61 60 62 61 57 57 57 54 53 51 50 50 52 53 52 52 53 52 55 60 59 58 56 56 56 55 54
59 60 61 60 61 61 61 62 62 62 62 62 61 62 61 60 60 60 61 60 57 57 55 53 52 52 49 49 51 52 52 52 52 53 53 56 59 60 59 57 56 56 55
59 60 59 61 60 60 59 59 61 61 61 61 60 61 60 59 60 59 57 58 57 56 57 54 53 52 48 48 50 50 51 53 52 53 52 53 56 59 60 59 58 57 56
58 60 60 59 60 60 59 59 59 61 61 61 61 61 57 58 58 59 55 54 54 55 53 51 50 49 48 47 49 49 49 51 52 53 52 52 52 53 58 60 60 59 58
57 59 60 60 59 59 59 60 60 60 59 59 60 60 57 57 57 57 54 54 55 53 54 52 52 51 48 46 46 47 48 48 51 49 51 52 54 52 53 58 59 59 59
57 59 60 60 59 58 59 59 59 59 59 59 59 58 57 55 56 56 55 56 52 52 52 52 52 49 48 45 40 43 47 46 47 47 48 48 50 52 52 55 57 57 59
56 58 59 59 58 56 57 57 57 57 58 59 59 57 56 53 54 55 54 57 57 53 53 56 51 50 46 46 40 42 44 46 47 45 46 46 47 48 51 50 53 52 56
54 57 58 59 57 57 56 57 57 57 57 57 59 59 57 55 54 55 56 56 56 54 56 56 56 50 48 47 41 42 43 44 45 46 45 46 51 46 46 50 50 52 52
53 55 56 58 58 57 56 57 57 58 57 56 58 58 57 57 53 56 58 57 57 57 57 58 57 55 50 50 51 48 45 43 47 47 50 47 50 49 48 48 49 49 50
53 55 56 57 58 57 57 56 56 54 54 54 55 57 57 56 56 56 57 58 58 57 58 59 57 57 56 53 52 50 54 53 51 49 47 50 50 48 50 50 49 48 49
52 55 54 56 57 57 57 56 55 54 55 55 54 55 54 54 56 56 57 57 59 59 59 60 60 59 57 58 56 53 53 53 54 53 50 46 47 46 48 48 47 48 48
51 54 55 54 55 57 58 57 56 54 54 55 56 55 53 54 55 58 58 57 58 59 59 59 59 60 59 57 59 56 55 51 50 50 49 52 52 52 54 53 52 50 50

GFSSE_sfc_dewp_069.txt.gz
Dewpoint
68 71 72 72 72 72 72 72 72 71 71 72 72 71 71 71 71 70 70 70 69 69 69 69 70 69 69 70 70 70 70 69 69 69 69 69 68 68 68 68 68 66 69
68 71 72 72 72 72 72 72 72 71 71 72 72 71 71 71 70 70 70 69 70 70 69 69 69 68 68 69 70 69 69 69 68 68 68 68 68 68 67 67 68 66 68
67 70 71 72 71 72 72 72 72 71 71 72 72 71 71 70 70 70 70 70 71 70 69 66 67 68 69 69 69 68 68 68 67 67 67 64 64 67 67 66 66 66 66
67 68 70 72 72 71 72 72 72 71 71 71 71 71 71 71 71 71 70 70 70 70 69 68 67 67 68 68 68 68 67 66 66 65 63 63 63 66 66 65 64 64 64
64 67 69 71 71 71 71 71 71 71 71 71 71 71 71 71 71 71 70 69 69 69 68 67 67 67 68 67 68 67 66 65 64 61 60 61 62 64 64 64 63 62 62
63 66 68 70 71 71 71 71 71 71 70 70 70 70 71 71 71 70 69 69 69 69 67 67 67 67 66 66 66 65 64 63 61 58 60 61 59 62 62 61 60 60 60
64 68 68 68 70 71 71 71 70 70 70 70 70 70 70 70 70 69 68 68 68 68 67 66 66 65 64 64 64 63 63 61 55 56 57 58 59 61 61 60 59 59 59
67 68 67 68 69 69 69 69 68 68 69 68 69 69 68 69 69 68 68 68 67 67 66 66 65 64 65 64 62 61 61 59 56 56 56 55 60 60 60 59 59 59 58
66 66 67 67 67 66 66 66 65 66 65 66 67 67 68 68 67 67 67 67 67 66 66 65 65 64 64 63 60 60 60 59 55 55 56 55 59 59 59 59 58 58 58
66 65 65 66 64 64 64 64 64 66 66 63 64 66 67 67 67 67 67 66 66 66 65 65 64 63 63 61 59 61 60 59 54 55 56 56 59 59 59 58 58 58 57
64 64 64 65 64 64 63 63 64 65 65 63 64 62 66 64 65 65 65 66 66 65 64 64 64 62 61 59 60 60 58 53 54 55 56 60 59 59 59 58 58 57 57
61 63 64 64 63 63 64 62 61 62 63 61 61 62 65 64 63 64 65 65 65 64 64 64 62 61 58 54 53 56 52 53 54 55 56 60 59 58 58 58 57 57 56
61 63 63 63 62 61 62 62 61 61 60 59 59 60 65 63 64 64 63 63 63 63 61 60 59 55 52 52 52 52 52 54 54 55 58 60 59 58 58 57 57 56 56
60 61 62 62 63 62 63 62 61 60 61 59 59 59 65 64 63 63 61 61 61 59 58 57 55 52 51 52 52 54 53 53 54 55 57 59 59 58 57 57 56 56 55
59 60 61 62 63 62 61 60 61 61 62 61 64 64 64 63 62 59 59 59 57 57 55 53 53 52 49 50 52 53 53 53 54 55 55 58 59 58 57 57 56 56 55
59 60 60 61 61 61 60 60 61 61 61 63 64 64 63 63 61 57 57 55 56 54 52 52 52 50 50 51 53 53 53 53 53 54 55 56 58 59 58 57 56 56 55
59 60 59 61 61 61 61 60 60 61 62 62 62 62 62 62 60 56 55 55 56 54 51 52 53 52 51 52 52 53 53 53 53 54 55 56 57 58 58 58 57 56 55
58 60 60 60 60 59 60 61 60 61 61 62 62 62 61 61 60 59 56 55 56 54 53 53 54 51 52 51 51 52 53 53 53 53 54 55 56 55 58 59 59 58 57
58 59 59 59 59 59 58 60 60 60 61 61 61 61 61 60 61 60 58 57 56 55 56 54 54 51 50 51 51 51 52 53 54 53 53 54 55 56 56 58 59 59 59
59 58 58 59 59 59 59 60 60 61 59 60 60 60 60 59 59 60 59 59 60 57 57 54 52 52 50 51 48 49 51 52 53 53 53 54 55 55 55 55 57 57 58
59 59 59 59 59 59 58 58 57 57 59 59 59 60 59 58 58 58 58 59 57 58 56 53 52 51 50 50 48 49 50 51 51 52 53 53 54 54 56 56 56 56 56
58 59 58 58 58 58 58 58 57 57 59 59 59 59 58 58 56 56 57 57 54 58 57 54 50 49 49 50 47 46 44 44 47 49 49 51 52 53 55 55 56 56 56
56 58 58 57 57 58 58 58 57 57 57 57 57 57 57 57 54 54 56 57 56 56 56 53 50 48 48 48 47 46 44 42 44 46 47 47 48 49 50 53 56 56 56
57 58 58 57 56 57 58 57 56 55 54 55 55 55 54 55 55 53 55 54 55 57 55 54 54 51 52 46 48 50 50 51 47 46 46 47 47 48 48 49 50 55 55
56 57 57 57 56 56 57 56 55 53 54 54 55 53 54 55 54 54 55 56 55 55 56 56 56 55 54 53 49 51 50 51 52 49 45 46 47 49 48 49 49 49 49
57 57 57 56 56 56 57 56 55 53 53 52 54 54 55 55 55 56 54 57 57 56 57 57 56 56 56 56 53 52 52 51 51 50 48 47 46 48 49 50 49 48 48

GFSSE_sfc_dewp_072.txt.gz
Dewpoint
68 71 72 72 72 72 72 71 71 72 72 72 72 72 72 72 71 71 71 70 70 71 70 70 71 71 70 70 70 71 70 70 70 70 69 69 69 68 68 69 68 66 69
69 71 71 72 72 72 72 71 71 72 72 72 72 72 71 71 71 70 70 70 70 71 70 70 71 70 69 70 70 70 69 69 69 69 69 68 68 68 68 68 68 67 68
70 71 71 71 72 72 72 72 71 72 72 72 71 71 71 71 70 70 69 69 70 70 69 68 69 69 69 69 69 69 69 68 68 68 67 65 65 67 67 67 67 67 67
69 71 71 71 71 72 72 72 71 72 72 72 71 71 71 71 70 71 70 69 70 70 68 68 69 69 69 69 68 68 67 67 67 66 64 64 64 67 66 66 66 65 65
67 70 71 71 71 71 71 71 71 71 71 71 71 71 71 70 71 71 70 70 69 68 68 67 68 69 68 68 67 67 66 65 65 63 62 63 63 64 65 65 64 63 62
66 68 69 70 71 71 71 71 71 71 71 70 70 70 71 71 71 70 69 69 69 69 68 68 68 69 68 67 66 66 65 64 63 61 62 62 61 64 63 62 62 62 62
66 67 68 69 70 71 71 71 71 70 70 70 70 70 70 71 71 70 69 69 68 68 68 68 68 67 66 65 64 64 63 62 57 58 59 60 60 63 62 61 61 59 60
66 67 67 69 71 71 70 70 69 69 70 69 69 70 70 69 69 69 69 68 68 67 67 67 66 66 64 64 64 62 62 60 57 56 57 59 61 60 60 60 58 59 59
66 66 66 66 67 67 68 67 67 67 68 68 67 67 66 67 67 68 68 68 67 67 67 66 65 64 64 63 62 61 61 60 55 55 54 57 59 59 59 59 59 59 58
65 65 65 65 63 63 64 66 66 67 66 66 66 64 65 66 67 67 67 67 67 66 66 66 65 64 62 62 61 61 60 60 55 55 54 57 59 58 59 58 58 58 58
64 63 64 63 64 63 63 65 66 66 66 66 65 63 64 65 66 66 66 66 66 65 65 65 64 63 62 61 61 61 59 55 55 55 54 59 59 58 59 58 58 58 58
61 62 63 62 62 63 63 64 63 64 63 62 62 63 61 60 65 64 65 65 65 64 64 64 63 62 58 56 57 58 55 55 55 55 54 59 58 58 58 58 58 57 57
61 62 62 62 62 63 62 62 61 61 62 61 61 62 60 62 65 64 64 63 63 64 62 60 59 55 53 52 53 53 54 54 55 56 57 59 59 58 58 58 57 57 57
61 62 62 62 61 60 61 61 60 60 60 60 60 61 60 63 64 63 62 62 61 60 59 58 55 53 52 52 53 53 54 54 55 56 58 60 59 58 58 58 57 57 56
60 60 61 61 62 62 62 60 59 59 59 59 59 60 64 64 62 61 61 61 60 59 57 55 53 51 51 52 53 53 53 54 54 56 56 60 59 58 58 58 57 57 56
59 59 60 61 62 61 59 60 61 61 61 60 59 60 63 62 61 60 60 59 58 56 55 53 52 49 49 51 53 53 53 54 54 54 55 57 59 59 58 57 57 56 56
59 59 59 60 61 60 59 59 61 60 62 62 61 61 64 62 60 59 57 56 56 54 52 52 52 49 49 52 53 53 53 53 53 54 54 55 57 58 58 58 57 56 56
59 59 59 60 59 59 60 59 61 61 62 62 63 62 63 60 58 57 55 55 53 52 51 52 53 50 49 52 53 53 53 53 53 54 54 55 55 55 57 58 58 58 56
59 59 59 60 59 58 61 60 60 60 62 62 62 62 62 59 57 55 55 55 53 51 50 52 53 51 50 51 53 53 53 53 53 53 54 55 55 55 55 58 58 58 58
58 59 59 59 59 57 58 60 60 60 60 60 62 62 62 60 57 56 55 57 55 51 52 53 53 51 51 51 50 52 53 54 53 53 53 54 55 55 55 55 56 56 58
58 57 58 59 58 58 58 58 58 58 59 59 60 60 60 61 59 55 55 58 55 55 54 53 53 50 50 51 49 49 51 53 53 53 53 54 54 55 55 55 56 56 56
57 57 57 58 58 58 57 57 57 58 59 59 60 60 60 59 59 57 55 58 57 56 56 55 52 51 50 50 49 48 46 46 50 52 53 53 54 54 55 55 55 55 55
57 57 58 58 58 58 58 57 56 57 58 58 58 59 59 59 58 59 57 57 57 57 55 54 51 50 48 49 49 48 44 44 45 47 49 53 53 54 54 55 55 55 56
57 57 57 57 57 57 58 56 55 55 55 56 57 58 58 59 58 57 58 57 56 58 57 56 54 50 50 48 48 48 47 48 46 44 46 48 49 51 52 54 55 55 56
58 57 57 57 57 57 57 56 56 55 55 56 57 57 57 58 57 56 57 57 56 57 57 56 55 53 51 50 47 49 49 51 51 48 44 45 47 47 49 50 52 55 55
57 57 56 55 56 56 57 56 55 55 54 54 55 55 56 56 56 55 56 56 56 56 57 56 56 55 53 51 50 50 50 50 50 49 47 46 45 46 49 49 49 49 51

GFSSE_sfc_dewp_075.txt.gz
Dewpoint
68 70 71 72 72 72 71 71 71 72 72 73 73 73 72 72 72 71 71 71 71 71 70 70 72 71 70 70 70 70 70 70 70 69 69 69 69 69 69 69 69 67 69
68 70 71 72 72 71 71 71 71 72 72 72 72 72 72 72 72 71 71 71 71 71 70 70 72 70 70 70 70 70 70 69 69 69 69 69 68 68 68 68 69 67 69
69 70 70 71 72 72 71 71 72 72 72 72 72 72 72 71 71 71 71 71 71 71 70 69 70 70 70 70 70 69 69 69 68 68 68 65 65 68 68 67 68 68 67
70 70 70 71 71 72 71 71 72 72 72 72 72 71 71 71 71 71 70 70 70 70 70 70 70 69 69 69 69 69 69 68 67 67 64 65 64 67 67 67 66 66 67
70 70 70 71 71 71 72 71 71 71 71 71 71 71 71 71 70 70 70 70 70 70 70 69 69 69 69 68 68 67 67 67 66 64 63 64 64 65 66 66 64 64 64
68 70 70 70 70 71 71 71 71 71 70 70 70 71 71 70 70 70 70 70 69 68 69 69 69 69 68 67 66 66 65 65 64 62 63 64 63 65 64 63 63 62 63
66 68 69 69 70 71 71 71 71 71 70 70 70 70 70 70 70 70 69 69 68 69 69 69 68 68 67 66 66 65 64 63 60 60 60 61 62 63 63 62 61 61 61
66 66 68 70 70 70 71 70 69 69 70 70 70 70 70 70 69 70 69 69 68 67 68 68 67 67 66 65 64 63 63 61 58 59 60 61 62 63 63 61 59 59 59
65 66 66 68 70 70 69 69 68 67 67 67 68 67 67 67 68 68 68 68 68 68 67 67 66 64 65 64 63 62 61 60 55 55 58 60 61 61 61 59 58 58 58
64 64 64 64 64 65 66 66 66 66 66 66 66 63 63 66 67 66 67 67 67 67 67 66 64 64 65 63 63 61 61 59 55 54 56 57 60 59 60 58 58 57 58
63 63 63 63 62 62 65 66 67 67 65 65 66 65 64 65 65 65 66 67 66 66 65 65 63 63 63 63 62 61 59 55 55 54 56 61 59 60 58 58 57 57 57
61 61 63 63 61 62 64 65 66 65 64 63 64 63 63 64 65 64 65 65 65 65 65 64 63 63 61 59 59 59 55 55 55 54 56 60 58 58 58 58 58 58 58
60 61 62 63 63 63 62 63 64 65 64 63 63 62 62 62 64 65 64 64 63 64 61 60 59 58 57 57 55 55 55 55 55 54 56 58 59 59 59 58 58 58 57
60 60 62 62 63 62 62 62 61 62 62 61 61 62 60 60 62 63 64 62 62 61 60 58 54 54 54 54 54 54 54 55 55 56 55 58 59 58 58 58 58 57 57
60 60 62 62 60 60 60 60 60 60 61 61 61 61 60 60 62 63 62 61 61 60 58 56 52 52 52 53 54 54 54 55 55 56 56 59 59 58 58 58 58 57 56
60 59 62 62 62 60 61 60 60 60 60 60 60 61 60 62 63 62 61 60 59 59 57 54 51 51 52 53 53 54 54 54 55 55 56 57 59 59 59 58 57 57 56
59 59 60 62 61 60 60 60 61 60 61 59 60 60 61 61 63 62 60 59 58 56 55 53 50 50 52 53 53 53 54 54 54 54 56 56 57 58 59 58 58 57 56
58 58 59 61 59 58 57 59 60 61 61 61 60 60 60 62 62 61 59 58 56 54 53 52 50 49 52 53 52 53 53 54 54 54 55 55 55 55 58 59 58 58 56
58 58 58 58 58 58 58 59 60 61 61 62 62 61 60 62 60 59 58 56 54 52 52 52 51 49 51 53 53 53 53 53 53 54 54 54 55 54 55 58 58 58 58
58 58 58 58 58 59 60 59 60 60 60 62 62 61 60 60 59 57 55 54 54 50 52 52 51 50 51 53 52 52 53 53 53 53 53 54 54 54 55 55 56 56 58
58 58 58 57 57 58 59 59 57 58 59 60 61 62 60 59 57 54 55 54 53 49 51 52 52 49 50 51 51 51 51 52 53 53 54 54 54 54 55 55 56 56 56
58 58 57 57 57 58 58 58 58 58 59 60 60 60 62 60 58 54 55 53 52 50 53 53 52 51 50 51 50 50 48 49 52 53 53 53 53 54 54 54 55 55 55
56 56 57 56 57 57 57 57 57 58 58 58 59 59 60 61 59 56 55 54 53 52 54 54 52 51 49 51 50 49 46 47 49 50 52 53 53 54 54 54 54 54 55
56 57 57 57 57 57 57 56 56 55 56 56 58 59 59 60 60 58 57 57 56 55 55 55 53 51 50 49 48 48 48 47 49 45 48 52 53 53 53 54 54 54 55
56 56 57 56 56 56 56 56 56 55 55 56 57 58 58 58 59 59 58 58 57 58 56 56 54 52 52 52 48 48 49 51 49 47 45 45 48 51 53 53 54 55 55
56 56 56 55 55 56 56 55 55 54 55 54 56 56 57 58 57 58 59 58 57 58 56 56 56 54 52 52 50 49 49 50 50 49 47 46 45 46 49 51 52 53 55

GFSSE_sfc_dewp_078.txt.gz
Dewpoint
68 69 71 71 70 72 72 72 72 73 73 72 72 73 73 73 72 72 72 71 71 72 72 72 72 72 71 70 71 71 71 70 70 70 70 70 69 69 69 69 69 67 69
68 70 71 71 71 72 72 71 72 73 73 73 73 73 72 72 72 72 72 71 71 72 72 72 72 71 70 70 71 70 70 69 69 69 69 69 69 69 69 69 69 67 69
68 70 70 71 72 72 72 71 72 73 73 73 73 72 72 72 72 71 72 71 71 72 71 71 70 70 70 70 70 70 70 69 69 68 68 66 66 68 68 68 68 68 68
68 69 70 71 71 71 71 71 71 72 73 73 72 72 72 72 71 71 71 71 71 71 71 70 70 70 70 70 69 69 69 69 68 67 65 65 65 68 68 67 67 67 67
69 69 69 71 71 71 71 71 71 71 72 72 72 72 72 72 71 71 70 70 71 71 71 70 70 70 70 69 68 68 68 67 67 65 64 65 65 66 67 66 66 67 67
69 69 69 70 71 71 71 71 71 71 71 71 71 72 72 71 71 71 70 70 70 70 70 70 70 69 68 68 68 67 66 66 64 63 64 65 64 65 65 64 64 64 65
67 69 69 69 70 71 71 71 71 71 70 70 71 71 71 71 71 70 70 70 70 70 70 69 69 68 67 67 67 66 65 64 61 61 62 63 63 64 64 63 63 62 62
66 67 68 70 70 70 70 70 70 70 70 70 70 70 69 69 68 68 69 69 68 69 68 69 68 67 67 66 66 64 64 63 60 61 62 62 64 64 63 63 61 61 60
65 65 67 68 69 70 69 69 68 68 68 69 68 67 67 66 67 67 68 68 68 68 68 68 67 66 66 65 64 63 62 62 59 59 61 62 64 63 61 59 59 58 57
64 64 64 68 69 69 69 68 66 67 67 66 65 65 64 63 64 65 66 67 67 68 68 67 66 66 65 64 63 62 61 60 56 58 59 60 63 60 59 58 59 59 59
63 63 63 64 65 66 66 67 67 67 66 66 65 64 64 63 64 64 66 66 67 66 66 65 65 65 64 63 63 62 59 55 55 56 57 61 60 60 60 59 59 58 58
62 62 64 64 61 62 65 65 66 66 65 64 63 62 62 63 63 63 64 65 65 65 65 64 65 64 62 60 60 59 55 55 54 55 57 61 61 60 59 58 57 57 59
61 60 63 64 62 62 64 65 65 65 64 64 63 62 62 63 63 64 64 64 64 64 61 61 62 60 59 58 55 56 55 55 55 55 57 58 60 57 57 59 58 58 57
59 60 62 63 63 63 63 63 63 64 64 63 63 63 63 63 63 63 63 63 63 62 59 59 59 58 57 56 55 55 55 55 55 55 55 59 59 59 60 59 59 58 57
58 59 61 62 63 62 62 62 62 63 63 62 63 62 62 62 62 63 63 63 63 60 58 55 55 56 54 54 55 55 55 55 55 55 56 59 60 60 59 59 59 57 56
59 60 62 62 62 61 61 61 61 61 62 61 62 62 61 61 61 62 62 62 61 60 57 53 54 54 53 54 54 54 55 55 56 56 56 57 59 59 59 58 57 57 57
59 60 62 62 61 59 59 60 60 59 60 60 61 61 60 60 61 62 62 61 60 59 55 52 52 53 53 54 54 54 55 55 55 56 56 56 57 58 59 59 58 56 56
58 59 61 61 61 58 59 60 61 60 59 59 59 61 60 60 63 63 62 61 59 57 55 52 51 52 53 53 53 54 54 55 55 55 56 56 56 56 58 58 59 58 56
58 58 59 60 59 57 57 59 59 60 61 61 60 60 61 60 61 62 61 59 57 55 55 52 51 52 53 53 53 53 54 54 54 54 55 55 55 55 56 58 58 58 58
57 58 59 59 58 57 58 58 60 60 61 61 61 60 60 61 61 62 60 57 57 54 53 51 50 51 53 53 52 52 53 53 54 54 54 54 55 55 55 56 57 57 57
57 58 58 59 59 58 57 57 58 58 59 60 61 62 61 60 61 60 58 56 55 53 52 52 50 50 52 53 52 51 52 52 53 53 54 54 55 55 55 55 56 56 56
58 57 57 58 57 58 59 58 58 58 59 60 61 60 59 59 58 57 56 55 53 52 53 52 50 50 51 53 51 50 49 51 52 53 54 54 54 54 54 55 55 56 56
57 57 57 57 57 57 58 58 57 58 58 58 59 60 59 59 58 57 56 55 51 51 52 52 51 50 51 52 52 50 48 48 50 52 52 53 53 54 54 54 55 55 55
56 57 57 57 55 56 57 56 56 55 55 57 58 59 60 59 58 57 56 54 51 51 52 53 52 50 52 51 50 50 50 50 50 46 49 52 53 53 54 54 54 54 55
56 56 56 56 56 56 56 56 54 55 55 57 58 58 59 60 58 57 58 55 54 54 54 54 54 52 52 52 50 49 49 50 49 48 46 48 51 53 53 54 54 54 54
55 56 56 56 56 56 56 55 54 54 55 55 56 57 57 58 59 57 58 58 58 56 56 56 55 53 53 53 51 50 50 49 48 48 46 47 48 49 52 53 54 54 55

GFSSE_sfc_dewp_081.txt.gz
Dewpoint
67 69 71 70 70 72 72 72 73 73 73 73 73 73 73 73 73 73 73 72 72 72 72 71 72 71 70 70 71 71 71 71 70 70 70 70 70 70 70 70 69 66 70
68 70 70 69 70 72 72 72 73 73 73 73 73 73 73 73 73 72 72 72 72 72 71 71 72 72 71 71 71 71 70 70 70 70 70 70 70 69 69 69 69 67 69
69 70 70 69 70 72 72 72 73 73 73 73 73 73 73 73 72 72 72 71 71 72 72 71 72 71 70 71 70 70 70 70 69 69 69 66 67 69 69 69 69 69 69
69 70 70 70 70 71 71 72 73 73 73 73 73 73 73 72 72 72 71 71 71 72 72 70 71 70 70 70 70 70 69 69 68 68 65 66 65 68 68 68 68 68 68
68 69 70 70 70 71 71 71 72 71 73 72 72 73 72 72 72 72 71 71 71 72 72 70 70 71 70 69 69 69 68 68 67 65 65 65 65 67 68 67 67 67 67
68 69 70 70 69 70 71 71 72 71 71 71 72 72 72 72 71 70 70 71 71 71 71 71 70 70 69 68 68 68 67 67 66 63 64 66 65 66 66 65 66 66 67
69 70 70 69 70 70 70 71 71 71 70 70 71 71 70 71 70 70 69 70 70 70 70 70 70 69 68 68 68 67 66 66 64 64 63 64 64 65 65 64 64 64 64
68 69 69 70 70 69 70 70 70 70 70 70 71 71 71 69 69 68 68 68 68 69 69 69 69 68 68 67 66 65 64 64 63 62 62 62 65 64 64 63 62 63 63
70 69 68 69 70 69 68 69 69 69 69 69 69 70 68 67 67 67 66 67 68 68 68 68 68 67 67 66 65 64 63 64 61 61 60 61 65 64 63 62 61 61 62
68 69 69 69 69 71 71 68 68 68 68 68 67 66 66 65 64 65 66 66 66 68 68 68 67 67 66 65 64 63 62 63 60 60 60 61 64 62 61 60 58 58 60
66 67 69 68 69 70 70 70 68 68 67 67 67 65 65 65 64 63 65 65 65 66 67 66 66 65 64 64 63 62 61 58 59 58 59 64 62 61 59 60 59 59 59
64 65 67 66 67 68 67 68 69 69 68 66 66 65 64 65 64 63 63 65 65 66 66 66 65 64 63 61 59 59 57 58 57 57 57 62 61 60 61 61 59 58 57
64 63 66 66 66 66 66 67 67 67 67 65 64 63 64 64 64 62 64 65 65 66 66 64 63 61 62 60 59 58 58 58 56 56 57 62 62 61 60 57 57 57 58
63 65 65 65 65 65 66 65 65 65 65 64 63 63 64 64 64 64 64 65 64 64 64 63 62 61 61 60 59 58 57 56 56 55 56 61 61 59 57 59 59 59 59
62 63 63 64 64 64 64 64 65 65 64 64 63 62 64 62 64 64 64 65 64 62 63 62 60 60 59 59 58 57 57 56 56 54 54 59 60 61 60 60 60 59 57
61 62 62 62 63 64 64 64 64 64 64 64 63 63 63 63 64 64 64 64 64 61 62 60 59 59 58 57 57 57 56 56 56 56 54 56 60 61 61 60 60 58 57
60 61 62 63 64 63 62 63 63 62 62 63 63 63 62 63 63 63 63 63 63 60 59 59 59 58 57 56 56 56 56 56 55 56 55 55 57 59 60 61 59 57 57
59 61 62 63 63 62 62 62 61 61 61 61 62 62 62 62 63 63 63 63 62 60 58 57 56 56 56 55 55 55 55 55 56 56 55 55 54 53 57 59 59 59 58
59 61 61 62 62 61 62 61 61 61 61 60 61 61 61 61 62 62 63 62 62 59 57 56 55 55 55 55 54 54 55 55 56 55 55 56 57 55 55 58 58 58 58
59 61 61 61 61 61 61 60 60 61 61 62 61 61 61 61 61 63 62 61 60 59 57 55 55 55 55 54 52 53 54 55 55 55 55 55 56 56 56 56 56 55 57
60 60 59 60 60 59 59 59 59 59 60 61 61 62 61 61 61 61 61 59 59 58 56 55 55 55 54 55 53 53 54 55 55 55 56 55 55 56 56 56 55 54 55
59 59 59 59 59 59 59 58 58 59 60 60 61 61 62 60 61 61 58 59 58 57 57 55 55 54 54 55 52 52 50 52 53 54 55 55 56 55 55 56 56 56 55
58 59 58 58 59 59 59 59 59 59 60 60 60 59 59 60 61 59 58 58 57 57 55 55 55 55 53 54 55 52 50 49 51 53 54 54 55 55 55 55 56 56 56
58 59 58 58 58 58 60 58 57 56 56 58 60 60 59 59 58 58 57 57 55 56 55 54 53 54 55 53 54 52 54 53 50 50 52 54 54 54 55 55 54 55 55
58 58 57 57 58 58 58 57 57 57 57 59 59 59 59 59 58 57 57 55 55 55 56 55 54 54 55 55 53 53 52 53 54 53 50 51 53 53 54 55 54 55 55
57 57 56 56 56 57 57 57 57 57 56 57 58 58 58 59 58 58 57 56 55 55 55 55 55 55 55 55 53 54 53 51 50 52 51 51 51 53 53 54 56 55 56